Time,TemperatureF,DewpointF,PressureIn,WindDirection,WindDirectionDegrees,WindSpeedMPH,WindSpeedGustMPH,Humidity,HourlyPrecipIn,Conditions,Clouds,dailyrainin,SoftwareType,DateUTC
2013-01-05 00:00:00,32.9,-3.8,29.85,SSW,202,0.0,0.0,20,0.00,,,0.00,VWS V14.01,2013-01-05 05:00:00,
2013-01-05 00:01:00,32.9,-3.8,29.85,SSW,202,0.0,0.0,20,0.00,,,0.00,VWS V14.01,2013-01-05 05:01:00,
2013-01-05 00:05:00,32.9,-3.8,29.85,SSW,202,2.0,2.5,20,0.00,,,0.00,VWS V14.01,2013-01-05 05:05:00,
2013-01-05 00:06:00,32.9,-3.8,29.85,SSW,202,2.0,2.0,20,0.00,,,0.00,VWS V14.01,2013-01-05 05:06:00,
2013-01-05 00:10:00,32.9,-3.8,29.82,SSW,202,2.0,2.0,20,0.00,,,0.00,VWS V14.01,2013-01-05 05:10:00,
2013-01-05 00:11:00,32.9,-3.8,29.82,SSE,158,6.5,6.5,20,0.00,,,0.00,VWS V14.01,2013-01-05 05:11:00,
2013-01-05 00:15:00,32.9,-3.8,29.82,SSW,202,4.7,4.7,20,0.00,,,0.00,VWS V14.01,2013-01-05 05:15:00,
2013-01-05 00:16:00,32.9,-3.8,29.82,SW,225,3.4,4.7,20,0.00,,,0.00,VWS V14.01,2013-01-05 05:16:00,
2013-01-05 00:20:00,32.7,-3.9,29.82,SSW,202,2.0,2.0,20,0.00,,,0.00,VWS V14.01,2013-01-05 05:20:00,
2013-01-05 00:21:00,32.7,-3.9,29.82,SSW,202,2.0,2.0,20,0.00,,,0.00,VWS V14.01,2013-01-05 05:21:00,
2013-01-05 00:25:00,32.7,-3.9,29.85,WNW,292,1.3,3.8,20,0.00,,,0.00,VWS V14.01,2013-01-05 05:25:00,
2013-01-05 00:26:00,32.7,-3.9,29.85,WNW,292,1.3,1.3,20,0.00,,,0.00,VWS V14.01,2013-01-05 05:26:00,
2013-01-05 00:30:00,32.5,-4.1,29.85,WNW,292,2.7,2.7,20,0.00,,,0.00,VWS V14.01,2013-01-05 05:30:00,
2013-01-05 00:31:00,32.5,-4.1,29.85,WSW,248,0.0,2.7,20,0.00,,,0.00,VWS V14.01,2013-01-05 05:31:00,
2013-01-05 00:35:00,32.5,-4.1,29.85,WNW,292,0.0,0.0,20,0.00,,,0.00,VWS V14.01,2013-01-05 05:35:00,
2013-01-05 00:36:00,32.5,-4.1,29.85,SSW,202,0.0,0.0,20,0.00,,,0.00,VWS V14.01,2013-01-05 05:36:00,
2013-01-05 00:41:00,32.4,-4.2,29.85,South,180,0.0,0.0,20,0.00,,,0.00,VWS V14.01,2013-01-05 05:41:00,
2013-01-05 00:46:00,32.2,-4.4,29.85,SSW,202,0.0,0.0,20,0.00,,,0.00,VWS V14.01,2013-01-05 05:46:00,
2013-01-05 00:51:00,32.2,-4.4,29.85,SSW,202,0.0,0.0,20,0.00,,,0.00,VWS V14.01,2013-01-05 05:51:00,
2013-01-05 00:52:00,32.2,-4.4,29.85,SSW,202,0.0,0.0,20,0.00,,,0.00,VWS V14.01,2013-01-05 05:52:00,
2013-01-05 00:56:00,32.0,-4.5,29.85,South,180,0.0,0.0,20,0.00,,,0.00,VWS V14.01,2013-01-05 05:56:00,
2013-01-05 00:57:00,32.0,-4.5,29.85,South,180,0.0,0.0,20,0.00,,,0.00,VWS V14.01,2013-01-05 05:57:00,
2013-01-05 01:01:00,32.0,-4.5,29.85,WSW,248,0.0,0.0,20,0.00,,,0.00,VWS V14.01,2013-01-05 06:01:00,
2013-01-05 01:02:00,31.8,-4.7,29.85,WSW,248,0.0,0.0,20,0.00,,,0.00,VWS V14.01,2013-01-05 06:02:00,
2013-01-05 01:06:00,31.8,-4.7,29.85,SSW,202,1.1,1.1,20,0.00,,,0.00,VWS V14.01,2013-01-05 06:06:00,
2013-01-05 01:07:00,31.8,-4.7,29.85,SSW,202,1.1,1.1,20,0.00,,,0.00,VWS V14.01,2013-01-05 06:07:00,
2013-01-05 01:11:00,31.6,-4.8,29.88,WSW,248,0.0,0.0,20,0.00,,,0.00,VWS V14.01,2013-01-05 06:11:00,
2013-01-05 01:12:00,31.6,-4.8,29.88,WSW,248,0.0,0.0,20,0.00,,,0.00,VWS V14.01,2013-01-05 06:12:00,
2013-01-05 01:16:00,31.5,-5.0,29.88,SW,225,0.0,0.0,20,0.00,,,0.00,VWS V14.01,2013-01-05 06:16:00,
2013-01-05 01:17:00,31.5,-5.0,29.88,WSW,248,0.0,0.0,20,0.00,,,0.00,VWS V14.01,2013-01-05 06:17:00,
2013-01-05 01:21:00,31.3,-5.1,29.88,SSW,202,1.1,1.1,20,0.00,,,0.00,VWS V14.01,2013-01-05 06:21:00,
2013-01-05 01:22:00,31.3,-5.1,29.88,SW,225,1.1,1.1,20,0.00,,,0.00,VWS V14.01,2013-01-05 06:22:00,
2013-01-05 01:26:00,31.1,-5.3,29.88,WNW,292,2.0,2.0,20,0.00,,,0.00,VWS V14.01,2013-01-05 06:26:00,
2013-01-05 01:27:00,31.1,-5.3,29.88,WNW,292,2.0,2.0,20,0.00,,,0.00,VWS V14.01,2013-01-05 06:27:00,
2013-01-05 01:31:00,31.1,-5.3,29.88,SSW,202,0.0,0.0,20,0.00,,,0.00,VWS V14.01,2013-01-05 06:31:00,
2013-01-05 01:32:00,31.1,-5.3,29.88,SSW,202,0.0,0.0,20,0.00,,,0.00,VWS V14.01,2013-01-05 06:32:00,
2013-01-05 01:36:00,30.9,-5.4,29.88,SW,225,0.0,0.0,20,0.00,,,0.00,VWS V14.01,2013-01-05 06:36:00,
2013-01-05 01:37:00,30.9,-5.4,29.88,WSW,248,0.0,0.0,20,0.00,,,0.00,VWS V14.01,2013-01-05 06:37:00,
2013-01-05 01:38:00,30.9,-5.4,29.88,SSW,202,0.0,0.0,20,0.00,,,0.00,VWS V14.01,2013-01-05 06:38:00,
2013-01-05 01:41:00,30.9,-5.4,29.88,SSW,202,0.0,0.0,20,0.00,,,0.00,VWS V14.01,2013-01-05 06:41:00,
2013-01-05 01:42:00,30.9,-5.4,29.88,SW,225,0.0,0.0,20,0.00,,,0.00,VWS V14.01,2013-01-05 06:42:00,
2013-01-05 01:43:00,30.9,-5.4,29.88,SW,225,0.0,0.0,20,0.00,,,0.00,VWS V14.01,2013-01-05 06:43:00,
2013-01-05 01:46:00,30.7,-5.6,29.88,WSW,248,0.0,0.0,20,0.00,,,0.00,VWS V14.01,2013-01-05 06:46:00,
2013-01-05 01:47:00,30.7,-5.6,29.88,WSW,248,0.0,0.0,20,0.00,,,0.00,VWS V14.01,2013-01-05 06:47:00,
2013-01-05 01:48:00,30.7,-5.6,29.88,SW,225,0.0,0.0,20,0.00,,,0.00,VWS V14.01,2013-01-05 06:48:00,
2013-01-05 01:51:00,30.7,-5.6,29.88,SW,225,0.0,0.0,20,0.00,,,0.00,VWS V14.01,2013-01-05 06:51:00,
2013-01-05 01:52:00,30.7,-5.6,29.88,SW,225,0.0,0.0,20,0.00,,,0.00,VWS V14.01,2013-01-05 06:52:00,
2013-01-05 01:53:00,30.7,-5.6,29.88,SW,225,0.0,0.0,20,0.00,,,0.00,VWS V14.01,2013-01-05 06:53:00,
2013-01-05 01:56:00,30.7,-5.6,29.88,SW,225,0.0,0.0,20,0.00,,,0.00,VWS V14.01,2013-01-05 06:56:00,
2013-01-05 01:57:00,30.6,-5.7,29.88,WSW,248,0.0,0.0,20,0.00,,,0.00,VWS V14.01,2013-01-05 06:57:00,
2013-01-05 01:58:00,30.6,-5.7,29.88,WSW,248,0.0,0.0,20,0.00,,,0.00,VWS V14.01,2013-01-05 06:58:00,
2013-01-05 02:01:00,30.6,-5.7,29.88,WSW,248,0.0,0.0,20,0.00,,,0.00,VWS V14.01,2013-01-05 07:01:00,
2013-01-05 02:02:00,30.6,-5.7,29.88,WSW,248,0.0,0.0,20,0.00,,,0.00,VWS V14.01,2013-01-05 07:02:00,
2013-01-05 02:03:00,30.4,-5.9,29.88,SW,225,0.0,0.0,20,0.00,,,0.00,VWS V14.01,2013-01-05 07:03:00,
2013-01-05 02:06:00,30.4,-5.9,29.88,SW,225,0.0,0.0,20,0.00,,,0.00,VWS V14.01,2013-01-05 07:06:00,
2013-01-05 02:08:00,30.2,-6.0,29.88,SSW,202,0.0,0.0,20,0.00,,,0.00,VWS V14.01,2013-01-05 07:08:00,
2013-01-05 02:09:00,30.2,-6.0,29.88,SSW,202,0.0,0.0,20,0.00,,,0.00,VWS V14.01,2013-01-05 07:09:00,
2013-01-05 02:11:00,30.2,-6.0,29.91,SSW,202,0.0,0.0,20,0.00,,,0.00,VWS V14.01,2013-01-05 07:11:00,
2013-01-05 02:13:00,30.2,-6.0,29.91,SSW,202,0.0,0.0,20,0.00,,,0.00,VWS V14.01,2013-01-05 07:13:00,
2013-01-05 02:14:00,30.2,-6.0,29.91,SSW,202,0.0,0.0,20,0.00,,,0.00,VWS V14.01,2013-01-05 07:14:00,
2013-01-05 02:16:00,30.0,-6.2,29.91,SW,225,0.0,0.0,20,0.00,,,0.00,VWS V14.01,2013-01-05 07:16:00,
2013-01-05 02:18:00,30.0,-6.2,29.91,WSW,248,0.0,0.0,20,0.00,,,0.00,VWS V14.01,2013-01-05 07:18:00,
2013-01-05 02:19:00,30.0,-6.2,29.91,WSW,248,0.0,0.0,20,0.00,,,0.00,VWS V14.01,2013-01-05 07:19:00,
2013-01-05 02:22:00,30.0,-6.2,29.91,SW,225,0.0,0.0,20,0.00,,,0.00,VWS V14.01,2013-01-05 07:22:00,
2013-01-05 02:23:00,29.8,-6.3,29.91,SW,225,0.0,0.0,20,0.00,,,0.00,VWS V14.01,2013-01-05 07:23:00,
2013-01-05 02:24:00,29.8,-6.3,29.91,SW,225,0.0,0.0,20,0.00,,,0.00,VWS V14.01,2013-01-05 07:24:00,
2013-01-05 02:27:00,29.8,-6.3,29.91,SW,225,0.0,0.0,20,0.00,,,0.00,VWS V14.01,2013-01-05 07:27:00,
2013-01-05 02:28:00,29.7,-6.5,29.91,SW,225,0.0,0.0,20,0.00,,,0.00,VWS V14.01,2013-01-05 07:28:00,
2013-01-05 02:29:00,29.7,-6.5,29.91,SW,225,0.0,0.0,20,0.00,,,0.00,VWS V14.01,2013-01-05 07:29:00,
2013-01-05 02:32:00,29.7,-6.5,29.91,SW,225,0.0,0.0,20,0.00,,,0.00,VWS V14.01,2013-01-05 07:32:00,
2013-01-05 02:33:00,29.7,-6.5,29.91,SW,225,0.0,0.0,20,0.00,,,0.00,VWS V14.01,2013-01-05 07:33:00,
2013-01-05 02:34:00,29.7,-6.5,29.91,SW,225,0.0,0.0,20,0.00,,,0.00,VWS V14.01,2013-01-05 07:34:00,
2013-01-05 02:37:00,29.5,-6.6,29.91,SSW,202,0.0,0.0,20,0.00,,,0.00,VWS V14.01,2013-01-05 07:37:00,
2013-01-05 02:39:00,29.5,-6.6,29.91,SSW,202,0.0,0.0,20,0.00,,,0.00,VWS V14.01,2013-01-05 07:39:00,
2013-01-05 02:42:00,29.5,-6.6,29.91,SW,225,0.0,0.0,20,0.00,,,0.00,VWS V14.01,2013-01-05 07:42:00,
2013-01-05 02:44:00,29.5,-6.6,29.91,WSW,248,0.0,0.0,20,0.00,,,0.00,VWS V14.01,2013-01-05 07:44:00,
2013-01-05 02:47:00,29.5,-6.6,29.91,SW,225,0.0,0.0,20,0.00,,,0.00,VWS V14.01,2013-01-05 07:47:00,
2013-01-05 02:49:00,29.5,-6.6,29.91,SW,225,0.0,0.0,20,0.00,,,0.00,VWS V14.01,2013-01-05 07:49:00,
2013-01-05 02:52:00,29.5,-6.6,29.91,SSW,202,0.0,0.0,20,0.00,,,0.00,VWS V14.01,2013-01-05 07:52:00,
2013-01-05 02:54:00,29.5,-6.6,29.91,SW,225,0.0,0.0,20,0.00,,,0.00,VWS V14.01,2013-01-05 07:54:00,
2013-01-05 02:57:00,29.5,-6.6,29.91,SW,225,0.0,0.0,20,0.00,,,0.00,VWS V14.01,2013-01-05 07:57:00,
2013-01-05 02:59:00,29.5,-6.6,29.91,SSW,202,0.0,0.0,20,0.00,,,0.00,VWS V14.01,2013-01-05 07:59:00,
2013-01-05 03:00:00,29.5,-6.6,29.91,SSW,202,0.0,0.0,20,0.00,,,0.00,VWS V14.01,2013-01-05 08:00:00,
2013-01-05 03:02:00,29.5,-6.6,29.91,SSW,202,0.0,0.0,20,0.00,,,0.00,VWS V14.01,2013-01-05 08:02:00,
2013-01-05 03:04:00,29.5,-6.6,29.91,WSW,248,0.0,0.0,20,0.00,,,0.00,VWS V14.01,2013-01-05 08:04:00,
2013-01-05 03:05:00,29.5,-6.6,29.91,WSW,248,0.0,0.0,20,0.00,,,0.00,VWS V14.01,2013-01-05 08:05:00,
2013-01-05 03:07:00,29.5,-6.6,29.91,West,270,0.0,0.0,20,0.00,,,0.00,VWS V14.01,2013-01-05 08:07:00,
2013-01-05 03:09:00,29.5,-6.6,29.91,SSW,202,0.0,0.0,20,0.00,,,0.00,VWS V14.01,2013-01-05 08:09:00,
2013-01-05 03:10:00,29.5,-6.6,29.91,SSW,202,0.0,0.0,20,0.00,,,0.00,VWS V14.01,2013-01-05 08:10:00,
2013-01-05 03:12:00,29.5,-6.6,29.91,West,270,0.0,0.0,20,0.00,,,0.00,VWS V14.01,2013-01-05 08:12:00,
2013-01-05 03:14:00,29.7,-6.5,29.91,SSE,158,0.0,0.0,20,0.00,,,0.00,VWS V14.01,2013-01-05 08:14:00,
2013-01-05 03:15:00,29.7,-6.5,29.91,SSE,158,0.0,0.0,20,0.00,,,0.00,VWS V14.01,2013-01-05 08:15:00,
2013-01-05 03:17:00,29.7,-6.5,29.91,WSW,248,0.0,0.0,20,0.00,,,0.00,VWS V14.01,2013-01-05 08:17:00,
2013-01-05 03:20:00,29.7,-6.5,29.91,East,90,0.0,0.0,20,0.00,,,0.00,VWS V14.01,2013-01-05 08:20:00,
2013-01-05 03:21:00,29.7,-6.5,29.91,WNW,292,0.0,0.0,20,0.00,,,0.00,VWS V14.01,2013-01-05 08:21:00,
2013-01-05 03:22:00,29.7,-6.5,29.91,SSW,202,0.0,0.0,20,0.00,,,0.00,VWS V14.01,2013-01-05 08:22:00,
2013-01-05 03:25:00,29.8,-6.3,29.94,West,270,0.0,0.0,20,0.00,,,0.00,VWS V14.01,2013-01-05 08:25:00,
2013-01-05 03:26:00,29.8,-6.3,29.94,West,270,0.0,0.0,20,0.00,,,0.00,VWS V14.01,2013-01-05 08:26:00,
2013-01-05 03:27:00,29.8,-6.3,29.94,WNW,292,0.0,0.0,20,0.00,,,0.00,VWS V14.01,2013-01-05 08:27:00,
2013-01-05 03:30:00,29.8,-6.3,29.94,NNE,22,0.0,0.0,20,0.00,,,0.00,VWS V14.01,2013-01-05 08:30:00,
2013-01-05 03:31:00,29.8,-6.3,29.94,WSW,248,0.0,0.0,20,0.00,,,0.00,VWS V14.01,2013-01-05 08:31:00,
2013-01-05 03:33:00,29.8,-6.3,29.94,WNW,292,0.0,0.0,20,0.00,,,0.00,VWS V14.01,2013-01-05 08:33:00,
2013-01-05 03:35:00,30.0,-6.2,29.94,West,270,0.0,0.0,20,0.00,,,0.00,VWS V14.01,2013-01-05 08:35:00,
2013-01-05 03:36:00,30.0,-6.2,29.94,West,270,0.0,0.0,20,0.00,,,0.00,VWS V14.01,2013-01-05 08:36:00,
2013-01-05 03:38:00,30.0,-6.2,29.94,West,270,0.0,0.0,20,0.00,,,0.00,VWS V14.01,2013-01-05 08:38:00,
2013-01-05 03:40:00,30.0,-6.2,29.91,West,270,0.0,0.0,20,0.00,,,0.00,VWS V14.01,2013-01-05 08:40:00,
2013-01-05 03:41:00,30.0,-6.2,29.91,WNW,292,0.0,0.0,20,0.00,,,0.00,VWS V14.01,2013-01-05 08:41:00,
2013-01-05 03:43:00,30.0,-6.2,29.91,WSW,248,0.0,0.0,20,0.00,,,0.00,VWS V14.01,2013-01-05 08:43:00,
2013-01-05 03:45:00,30.0,-6.2,29.91,West,270,0.0,0.0,20,0.00,,,0.00,VWS V14.01,2013-01-05 08:45:00,
2013-01-05 03:46:00,30.0,-6.2,29.91,West,270,0.0,0.0,20,0.00,,,0.00,VWS V14.01,2013-01-05 08:46:00,
2013-01-05 03:48:00,30.0,-6.2,29.91,WNW,292,0.0,0.0,20,0.00,,,0.00,VWS V14.01,2013-01-05 08:48:00,
2013-01-05 03:50:00,30.0,-6.2,29.91,WNW,292,0.0,0.0,20,0.00,,,0.00,VWS V14.01,2013-01-05 08:50:00,
2013-01-05 03:51:00,30.0,-6.2,29.91,WSW,248,0.0,0.0,20,0.00,,,0.00,VWS V14.01,2013-01-05 08:51:00,
2013-01-05 03:53:00,30.0,-6.2,29.91,West,270,0.0,0.0,20,0.00,,,0.00,VWS V14.01,2013-01-05 08:53:00,
2013-01-05 03:55:00,30.0,-6.2,29.94,West,270,0.0,0.0,20,0.00,,,0.00,VWS V14.01,2013-01-05 08:55:00,
2013-01-05 03:56:00,30.0,-6.2,29.94,West,270,0.0,0.0,20,0.00,,,0.00,VWS V14.01,2013-01-05 08:56:00,
2013-01-05 03:58:00,30.0,-6.2,29.94,SW,225,0.0,0.0,20,0.00,,,0.00,VWS V14.01,2013-01-05 08:58:00,
2013-01-05 04:00:00,30.0,-6.2,29.94,SSW,202,0.0,0.0,20,0.00,,,0.00,VWS V14.01,2013-01-05 09:00:00,
2013-01-05 04:01:00,30.0,-6.2,29.94,West,270,0.0,0.0,20,0.00,,,0.00,VWS V14.01,2013-01-05 09:01:00,
2013-01-05 04:03:00,30.0,-6.2,29.94,WNW,292,0.0,0.0,20,0.00,,,0.00,VWS V14.01,2013-01-05 09:03:00,
2013-01-05 04:06:00,30.0,-6.2,29.94,WNW,292,0.0,0.0,20,0.00,,,0.00,VWS V14.01,2013-01-05 09:06:00,
2013-01-05 04:08:00,30.0,-6.2,29.94,West,270,0.0,0.0,20,0.00,,,0.00,VWS V14.01,2013-01-05 09:08:00,
2013-01-05 04:11:00,30.0,-6.2,29.94,West,270,0.0,0.0,20,0.00,,,0.00,VWS V14.01,2013-01-05 09:11:00,
2013-01-05 04:14:00,30.0,-6.2,29.94,WSW,248,0.0,0.0,20,0.00,,,0.00,VWS V14.01,2013-01-05 09:14:00,
2013-01-05 04:16:00,30.0,-6.2,29.94,WNW,292,0.0,0.0,20,0.00,,,0.00,VWS V14.01,2013-01-05 09:16:00,
2013-01-05 04:17:00,29.8,-6.3,29.94,WNW,292,0.0,0.0,20,0.00,,,0.00,VWS V14.01,2013-01-05 09:17:00,
2013-01-05 04:19:00,29.8,-6.3,29.94,WNW,292,0.0,0.0,20,0.00,,,0.00,VWS V14.01,2013-01-05 09:19:00,
2013-01-05 04:21:00,29.8,-6.3,29.94,WNW,292,0.0,0.0,20,0.00,,,0.00,VWS V14.01,2013-01-05 09:21:00,
2013-01-05 04:22:00,29.8,-6.3,29.94,WNW,292,0.0,0.0,20,0.00,,,0.00,VWS V14.01,2013-01-05 09:22:00,
2013-01-05 04:24:00,29.8,-6.3,29.94,WNW,292,0.0,0.0,20,0.00,,,0.00,VWS V14.01,2013-01-05 09:24:00,
2013-01-05 04:26:00,29.8,-6.3,29.94,WNW,292,0.0,0.0,20,0.00,,,0.00,VWS V14.01,2013-01-05 09:26:00,
2013-01-05 04:27:00,29.8,-6.3,29.94,WNW,292,0.0,0.0,20,0.00,,,0.00,VWS V14.01,2013-01-05 09:27:00,
2013-01-05 04:29:00,29.8,-6.3,29.94,West,270,0.0,0.0,20,0.00,,,0.00,VWS V14.01,2013-01-05 09:29:00,
2013-01-05 04:31:00,29.8,-6.3,29.94,WNW,292,0.0,0.0,20,0.00,,,0.00,VWS V14.01,2013-01-05 09:31:00,
2013-01-05 04:32:00,29.8,-6.3,29.94,WNW,292,0.0,0.0,20,0.00,,,0.00,VWS V14.01,2013-01-05 09:32:00,
2013-01-05 04:34:00,29.8,-6.3,29.94,West,270,0.0,2.9,20,0.00,,,0.00,VWS V14.01,2013-01-05 09:34:00,
2013-01-05 04:36:00,29.8,-6.3,29.94,NNW,338,0.0,0.0,20,0.00,,,0.00,VWS V14.01,2013-01-05 09:36:00,
2013-01-05 04:37:00,29.8,-6.3,29.94,WNW,292,0.0,0.0,20,0.00,,,0.00,VWS V14.01,2013-01-05 09:37:00,
2013-01-05 04:39:00,29.8,-6.3,29.97,SSW,202,0.9,2.7,20,0.00,,,0.00,VWS V14.01,2013-01-05 09:39:00,
2013-01-05 04:41:00,30.0,-6.2,29.97,WNW,292,0.0,0.0,20,0.00,,,0.00,VWS V14.01,2013-01-05 09:41:00,
2013-01-05 04:42:00,30.0,-6.2,29.97,WNW,292,0.0,0.0,20,0.00,,,0.00,VWS V14.01,2013-01-05 09:42:00,
2013-01-05 04:45:00,30.0,-6.2,29.97,West,270,0.0,0.9,20,0.00,,,0.00,VWS V14.01,2013-01-05 09:45:00,
2013-01-05 04:46:00,30.0,-6.2,29.97,WNW,292,0.0,0.0,20,0.00,,,0.00,VWS V14.01,2013-01-05 09:46:00,
2013-01-05 04:47:00,30.0,-6.2,29.97,West,270,0.0,0.0,20,0.00,,,0.00,VWS V14.01,2013-01-05 09:47:00,
2013-01-05 04:50:00,30.0,-6.2,29.97,West,270,0.0,0.0,20,0.00,,,0.00,VWS V14.01,2013-01-05 09:50:00,
2013-01-05 04:51:00,30.0,-6.2,29.97,WNW,292,0.0,0.0,20,0.00,,,0.00,VWS V14.01,2013-01-05 09:51:00,
2013-01-05 04:52:00,30.0,-6.2,29.97,WNW,292,0.0,0.0,20,0.00,,,0.00,VWS V14.01,2013-01-05 09:52:00,
2013-01-05 04:55:00,30.0,-6.2,29.97,SSE,158,0.0,0.0,20,0.00,,,0.00,VWS V14.01,2013-01-05 09:55:00,
2013-01-05 04:56:00,30.0,-6.2,29.97,West,270,0.0,0.0,20,0.00,,,0.00,VWS V14.01,2013-01-05 09:56:00,
2013-01-05 04:57:00,30.0,-6.2,29.97,West,270,0.0,0.0,20,0.00,,,0.00,VWS V14.01,2013-01-05 09:57:00,
2013-01-05 05:00:00,30.0,-6.2,29.97,West,270,0.0,0.0,20,0.00,,,0.00,VWS V14.01,2013-01-05 10:00:00,
2013-01-05 05:01:00,30.0,-6.2,29.97,WSW,248,0.0,0.0,20,0.00,,,0.00,VWS V14.01,2013-01-05 10:01:00,
2013-01-05 05:02:00,30.0,-6.2,29.97,West,270,0.0,0.0,20,0.00,,,0.00,VWS V14.01,2013-01-05 10:02:00,
2013-01-05 05:04:00,30.0,-6.2,29.97,West,270,0.0,0.0,20,0.00,,,0.00,VWS V14.01,2013-01-05 10:04:00,
2013-01-05 05:05:00,29.8,-6.3,29.97,West,270,0.0,0.0,20,0.00,,,0.00,VWS V14.01,2013-01-05 10:05:00,
2013-01-05 05:07:00,29.8,-6.3,29.97,West,270,0.0,0.0,20,0.00,,,0.00,VWS V14.01,2013-01-05 10:07:00,
2013-01-05 05:09:00,29.8,-6.3,29.97,WNW,292,0.0,0.0,20,0.00,,,0.00,VWS V14.01,2013-01-05 10:09:00,
2013-01-05 05:10:00,29.8,-6.3,29.97,WSW,248,0.0,0.0,20,0.00,,,0.00,VWS V14.01,2013-01-05 10:10:00,
2013-01-05 05:12:00,29.8,-6.3,29.97,WNW,292,0.0,0.0,20,0.00,,,0.00,VWS V14.01,2013-01-05 10:12:00,
2013-01-05 05:14:00,29.8,-6.3,29.97,WNW,292,0.0,0.0,20,0.00,,,0.00,VWS V14.01,2013-01-05 10:14:00,
2013-01-05 05:15:00,29.8,-6.3,29.97,West,270,0.0,0.0,20,0.00,,,0.00,VWS V14.01,2013-01-05 10:15:00,
2013-01-05 05:17:00,29.8,-6.3,29.97,West,270,0.0,0.0,20,0.00,,,0.00,VWS V14.01,2013-01-05 10:17:00,
2013-01-05 05:19:00,30.0,-6.2,29.97,West,270,2.5,2.5,20,0.00,,,0.00,VWS V14.01,2013-01-05 10:19:00,
2013-01-05 05:20:00,30.0,-6.2,29.97,SSW,202,0.0,0.0,20,0.00,,,0.00,VWS V14.01,2013-01-05 10:20:00,
2013-01-05 05:22:00,30.0,-6.2,29.97,West,270,0.0,0.0,20,0.00,,,0.00,VWS V14.01,2013-01-05 10:22:00,
2013-01-05 05:23:00,30.0,-6.2,29.97,WSW,248,0.0,0.0,20,0.00,,,0.00,VWS V14.01,2013-01-05 10:23:00,
2013-01-05 05:24:00,30.0,-6.2,29.97,WNW,292,0.0,0.0,20,0.00,,,0.00,VWS V14.01,2013-01-05 10:24:00,
2013-01-05 05:25:00,30.0,-6.2,29.97,West,270,0.0,0.0,20,0.00,,,0.00,VWS V14.01,2013-01-05 10:25:00,
2013-01-05 05:27:00,30.0,-6.2,29.97,WNW,292,0.0,0.0,20,0.00,,,0.00,VWS V14.01,2013-01-05 10:27:00,
2013-01-05 05:28:00,30.0,-6.2,29.97,WNW,292,0.0,0.0,20,0.00,,,0.00,VWS V14.01,2013-01-05 10:28:00,
2013-01-05 05:29:00,30.0,-6.2,29.97,West,270,0.0,0.0,20,0.00,,,0.00,VWS V14.01,2013-01-05 10:29:00,
2013-01-05 05:30:00,30.0,-6.2,29.97,West,270,0.0,0.0,20,0.00,,,0.00,VWS V14.01,2013-01-05 10:30:00,
2013-01-05 05:32:00,30.0,-6.2,29.97,SW,225,0.0,0.0,20,0.00,,,0.00,VWS V14.01,2013-01-05 10:32:00,
2013-01-05 05:33:00,30.0,-6.2,29.97,West,270,0.0,0.0,20,0.00,,,0.00,VWS V14.01,2013-01-05 10:33:00,
2013-01-05 05:34:00,30.0,-6.2,29.97,WNW,292,0.0,0.0,20,0.00,,,0.00,VWS V14.01,2013-01-05 10:34:00,
2013-01-05 05:36:00,30.0,-6.2,29.97,WNW,292,0.0,0.0,20,0.00,,,0.00,VWS V14.01,2013-01-05 10:36:00,
2013-01-05 05:37:00,29.8,-6.3,29.97,North,0,0.0,0.0,20,0.00,,,0.00,VWS V14.01,2013-01-05 10:37:00,
2013-01-05 05:38:00,29.8,-6.3,29.97,WSW,248,0.0,0.0,20,0.00,,,0.00,VWS V14.01,2013-01-05 10:38:00,
2013-01-05 05:39:00,29.8,-6.3,30.00,West,270,0.0,2.5,20,0.00,,,0.00,VWS V14.01,2013-01-05 10:39:00,
2013-01-05 05:41:00,29.8,-6.3,30.00,WNW,292,0.0,0.0,20,0.00,,,0.00,VWS V14.01,2013-01-05 10:41:00,
2013-01-05 05:42:00,30.0,-6.2,30.00,WSW,248,0.0,0.0,20,0.00,,,0.00,VWS V14.01,2013-01-05 10:42:00,
2013-01-05 05:43:00,30.0,-6.2,30.00,WNW,292,0.0,0.0,20,0.00,,,0.00,VWS V14.01,2013-01-05 10:43:00,
2013-01-05 05:44:00,30.0,-6.2,30.00,WNW,292,0.0,0.0,20,0.00,,,0.00,VWS V14.01,2013-01-05 10:44:00,
2013-01-05 05:46:00,30.0,-6.2,30.00,WNW,292,0.0,0.0,20,0.00,,,0.00,VWS V14.01,2013-01-05 10:46:00,
2013-01-05 05:47:00,30.0,-6.2,30.00,WNW,292,0.0,0.0,20,0.00,,,0.00,VWS V14.01,2013-01-05 10:47:00,
2013-01-05 05:48:00,30.0,-6.2,30.00,WNW,292,0.0,0.0,20,0.00,,,0.00,VWS V14.01,2013-01-05 10:48:00,
2013-01-05 05:49:00,29.8,-6.3,30.00,West,270,0.0,0.0,20,0.00,,,0.00,VWS V14.01,2013-01-05 10:49:00,
2013-01-05 05:51:00,29.8,-6.3,30.00,West,270,0.0,0.0,20,0.00,,,0.00,VWS V14.01,2013-01-05 10:51:00,
2013-01-05 05:52:00,29.8,-6.3,30.00,WNW,292,0.0,0.0,20,0.00,,,0.00,VWS V14.01,2013-01-05 10:52:00,
2013-01-05 05:53:00,29.8,-6.3,30.00,WSW,248,0.0,0.0,20,0.00,,,0.00,VWS V14.01,2013-01-05 10:53:00,
2013-01-05 05:55:00,29.8,-6.3,30.00,West,270,0.0,0.0,20,0.00,,,0.00,VWS V14.01,2013-01-05 10:55:00,
2013-01-05 05:56:00,29.8,-6.3,30.00,WSW,248,0.0,0.0,20,0.00,,,0.00,VWS V14.01,2013-01-05 10:56:00,
2013-01-05 05:57:00,29.8,-6.3,30.00,West,270,0.0,0.0,20,0.00,,,0.00,VWS V14.01,2013-01-05 10:57:00,
2013-01-05 05:58:00,29.8,-6.3,30.00,WSW,248,0.0,0.0,20,0.00,,,0.00,VWS V14.01,2013-01-05 10:58:00,
2013-01-05 06:00:00,29.8,-6.3,30.00,West,270,0.0,0.0,20,0.00,,,0.00,VWS V14.01,2013-01-05 11:00:00,
2013-01-05 06:02:00,29.8,-6.3,30.00,West,270,0.0,0.0,20,0.00,,,0.00,VWS V14.01,2013-01-05 11:02:00,
2013-01-05 06:03:00,29.8,-6.3,30.00,WNW,292,0.0,0.0,20,0.00,,,0.00,VWS V14.01,2013-01-05 11:03:00,
2013-01-05 06:05:00,29.8,-6.3,30.00,WNW,292,0.0,0.0,20,0.00,,,0.00,VWS V14.01,2013-01-05 11:05:00,
2013-01-05 06:07:00,29.8,-6.3,30.00,WNW,292,0.0,0.0,20,0.00,,,0.00,VWS V14.01,2013-01-05 11:07:00,
2013-01-05 06:08:00,29.8,-6.3,30.00,West,270,0.0,0.0,20,0.00,,,0.00,VWS V14.01,2013-01-05 11:08:00,
2013-01-05 06:10:00,29.8,-6.3,30.03,WNW,292,0.0,0.0,20,0.00,,,0.00,VWS V14.01,2013-01-05 11:10:00,
2013-01-05 06:12:00,29.7,-6.5,30.03,West,270,0.0,0.0,20,0.00,,,0.00,VWS V14.01,2013-01-05 11:12:00,
2013-01-05 06:13:00,29.7,-6.5,30.03,West,270,0.0,0.0,20,0.00,,,0.00,VWS V14.01,2013-01-05 11:13:00,
2013-01-05 06:15:00,29.7,-6.5,30.03,WSW,248,0.0,0.0,20,0.00,,,0.00,VWS V14.01,2013-01-05 11:15:00,
2013-01-05 06:17:00,29.7,-6.5,30.03,WSW,248,0.0,0.0,20,0.00,,,0.00,VWS V14.01,2013-01-05 11:17:00,
2013-01-05 06:18:00,29.7,-6.5,30.03,West,270,0.0,0.0,20,0.00,,,0.00,VWS V14.01,2013-01-05 11:18:00,
2013-01-05 06:20:00,29.7,-6.5,30.03,SSW,202,0.0,0.0,20,0.00,,,0.00,VWS V14.01,2013-01-05 11:20:00,
2013-01-05 06:22:00,29.7,-6.5,30.03,West,270,0.0,0.0,20,0.00,,,0.00,VWS V14.01,2013-01-05 11:22:00,
2013-01-05 06:23:00,29.7,-6.5,30.03,West,270,0.0,0.0,20,0.00,,,0.00,VWS V14.01,2013-01-05 11:23:00,
2013-01-05 06:25:00,29.8,-6.3,30.03,West,270,0.0,0.0,20,0.00,,,0.00,VWS V14.01,2013-01-05 11:25:00,
2013-01-05 06:27:00,29.8,-6.3,30.03,West,270,0.0,0.0,20,0.00,,,0.00,VWS V14.01,2013-01-05 11:27:00,
2013-01-05 06:28:00,29.8,-6.3,30.03,WNW,292,0.0,0.0,20,0.00,,,0.00,VWS V14.01,2013-01-05 11:28:00,
2013-01-05 06:29:00,29.8,-6.3,30.03,WSW,248,0.0,0.0,20,0.00,,,0.00,VWS V14.01,2013-01-05 11:29:00,
2013-01-05 06:30:00,29.8,-6.3,30.03,ESE,112,0.0,0.0,20,0.00,,,0.00,VWS V14.01,2013-01-05 11:30:00,
2013-01-05 06:32:00,29.8,-6.3,30.03,NW,315,0.0,0.0,20,0.00,,,0.00,VWS V14.01,2013-01-05 11:32:00,
2013-01-05 06:33:00,29.8,-6.3,30.03,NW,315,0.0,0.0,20,0.00,,,0.00,VWS V14.01,2013-01-05 11:33:00,
2013-01-05 06:34:00,29.8,-6.3,30.03,SW,225,0.0,0.0,20,0.00,,,0.00,VWS V14.01,2013-01-05 11:34:00,
2013-01-05 06:35:00,29.8,-6.3,30.03,SSW,202,0.0,0.0,20,0.00,,,0.00,VWS V14.01,2013-01-05 11:35:00,
2013-01-05 06:37:00,29.8,-6.3,30.03,South,180,0.0,0.0,20,0.00,,,0.00,VWS V14.01,2013-01-05 11:37:00,
2013-01-05 06:38:00,29.8,-6.3,30.03,South,180,0.0,0.0,20,0.00,,,0.00,VWS V14.01,2013-01-05 11:38:00,
2013-01-05 06:39:00,29.8,-6.3,30.03,SW,225,0.0,0.0,20,0.00,,,0.00,VWS V14.01,2013-01-05 11:39:00,
2013-01-05 06:40:00,29.8,-6.3,30.03,SW,225,0.0,0.0,20,0.00,,,0.00,VWS V14.01,2013-01-05 11:40:00,
2013-01-05 06:42:00,29.8,-6.3,30.03,SW,225,0.0,0.0,20,0.00,,,0.00,VWS V14.01,2013-01-05 11:42:00,
2013-01-05 06:43:00,29.8,-6.3,30.03,WSW,248,0.0,0.0,20,0.00,,,0.00,VWS V14.01,2013-01-05 11:43:00,
2013-01-05 06:45:00,29.8,-6.3,30.03,SSW,202,0.0,0.0,20,0.00,,,0.00,VWS V14.01,2013-01-05 11:45:00,
2013-01-05 06:47:00,29.8,-6.3,30.03,SW,225,0.0,0.0,20,0.00,,,0.00,VWS V14.01,2013-01-05 11:47:00,
2013-01-05 06:48:00,29.8,-6.3,30.03,SW,225,0.0,0.0,20,0.00,,,0.00,VWS V14.01,2013-01-05 11:48:00,
2013-01-05 06:50:00,29.8,-6.3,30.03,South,180,0.0,0.0,20,0.00,,,0.00,VWS V14.01,2013-01-05 11:50:00,
2013-01-05 06:52:00,30.0,-6.2,30.03,SSE,158,0.0,0.0,20,0.00,,,0.00,VWS V14.01,2013-01-05 11:52:00,
2013-01-05 06:53:00,30.0,-6.2,30.03,WNW,292,0.0,0.0,20,0.00,,,0.00,VWS V14.01,2013-01-05 11:53:00,
2013-01-05 06:55:00,30.0,-6.2,30.03,WSW,248,0.0,0.0,20,0.00,,,0.00,VWS V14.01,2013-01-05 11:55:00,
2013-01-05 06:58:00,30.0,-6.2,30.03,South,180,0.0,0.0,20,0.00,,,0.00,VWS V14.01,2013-01-05 11:58:00,
2013-01-05 07:00:00,30.0,-6.2,30.03,WNW,292,0.0,0.0,20,0.00,,,0.00,VWS V14.01,2013-01-05 12:00:00,
2013-01-05 07:03:00,30.0,-6.2,30.03,West,270,0.0,0.0,20,0.00,,,0.00,VWS V14.01,2013-01-05 12:03:00,
2013-01-05 07:04:00,30.0,-6.2,30.03,SW,225,0.0,0.0,20,0.00,,,0.00,VWS V14.01,2013-01-05 12:04:00,
2013-01-05 07:05:00,30.0,-6.2,30.03,SSW,202,0.0,0.0,20,0.00,,,0.00,VWS V14.01,2013-01-05 12:05:00,
2013-01-05 07:08:00,30.2,-6.0,30.03,SW,225,0.0,0.0,20,0.00,,,0.00,VWS V14.01,2013-01-05 12:08:00,
2013-01-05 07:09:00,30.0,-6.2,30.03,SW,225,0.0,0.0,20,0.00,,,0.00,VWS V14.01,2013-01-05 12:09:00,
2013-01-05 07:10:00,30.0,-6.2,30.03,SSW,202,0.0,0.0,20,0.00,,,0.00,VWS V14.01,2013-01-05 12:10:00,
2013-01-05 07:13:00,30.0,-6.2,30.03,WSW,248,0.0,0.0,20,0.00,,,0.00,VWS V14.01,2013-01-05 12:13:00,
2013-01-05 07:14:00,30.0,-6.2,30.03,SSE,158,0.0,0.0,20,0.00,,,0.00,VWS V14.01,2013-01-05 12:14:00,
2013-01-05 07:15:00,30.0,-6.2,30.03,SSW,202,0.0,0.0,20,0.00,,,0.00,VWS V14.01,2013-01-05 12:15:00,
2013-01-05 07:18:00,30.0,-6.2,30.03,WSW,248,0.0,0.0,20,0.00,,,0.00,VWS V14.01,2013-01-05 12:18:00,
2013-01-05 07:19:00,30.0,-6.2,30.03,WSW,248,0.0,0.0,20,0.00,,,0.00,VWS V14.01,2013-01-05 12:19:00,
2013-01-05 07:20:00,30.0,-6.2,30.03,WSW,248,0.0,0.0,20,0.00,,,0.00,VWS V14.01,2013-01-05 12:20:00,
2013-01-05 07:23:00,29.8,-6.3,30.03,SW,225,0.0,0.0,20,0.00,,,0.00,VWS V14.01,2013-01-05 12:23:00,
2013-01-05 07:24:00,29.8,-6.3,30.06,SSW,202,0.0,0.0,20,0.00,,,0.00,VWS V14.01,2013-01-05 12:24:00,
2013-01-05 07:25:00,29.8,-6.3,30.06,WSW,248,0.0,0.0,20,0.00,,,0.00,VWS V14.01,2013-01-05 12:25:00,
2013-01-05 07:28:00,29.8,-6.3,30.06,SW,225,0.0,0.0,20,0.00,,,0.00,VWS V14.01,2013-01-05 12:28:00,
2013-01-05 07:29:00,30.0,-6.2,30.06,WNW,292,0.0,0.0,20,0.00,,,0.00,VWS V14.01,2013-01-05 12:29:00,
2013-01-05 07:30:00,30.0,-6.2,30.06,SSW,202,0.0,0.0,20,0.00,,,0.00,VWS V14.01,2013-01-05 12:30:00,
2013-01-05 07:33:00,30.0,-6.2,30.06,SE,135,0.0,0.0,20,0.00,,,0.00,VWS V14.01,2013-01-05 12:33:00,
2013-01-05 07:34:00,30.0,-6.2,30.06,SW,225,0.0,0.0,20,0.00,,,0.00,VWS V14.01,2013-01-05 12:34:00,
2013-01-05 07:35:00,30.2,-6.0,30.06,WSW,248,0.0,0.0,20,0.00,,,0.00,VWS V14.01,2013-01-05 12:35:00,
2013-01-05 07:38:00,30.2,-6.0,30.06,SW,225,0.0,0.0,20,0.00,,,0.00,VWS V14.01,2013-01-05 12:38:00,
2013-01-05 07:39:00,30.2,-6.0,30.06,SSW,202,0.0,0.0,20,0.00,,,0.00,VWS V14.01,2013-01-05 12:39:00,
2013-01-05 07:40:00,30.2,-6.0,30.06,WNW,292,0.0,0.0,20,0.00,,,0.00,VWS V14.01,2013-01-05 12:40:00,
2013-01-05 07:41:00,30.2,-6.0,30.06,WNW,292,0.0,0.0,20,0.00,,,0.00,VWS V14.01,2013-01-05 12:41:00,
2013-01-05 07:43:00,30.2,-6.0,30.06,WNW,292,0.0,0.0,20,0.00,,,0.00,VWS V14.01,2013-01-05 12:43:00,
2013-01-05 07:44:00,30.2,-6.0,30.06,WSW,248,0.0,0.0,20,0.00,,,0.00,VWS V14.01,2013-01-05 12:44:00,
2013-01-05 07:46:00,30.2,-6.0,30.06,WSW,248,0.0,0.0,20,0.00,,,0.00,VWS V14.01,2013-01-05 12:46:00,
2013-01-05 07:48:00,30.2,-6.0,30.06,SSW,202,0.0,0.0,20,0.00,,,0.00,VWS V14.01,2013-01-05 12:48:00,
2013-01-05 07:50:00,30.2,-6.0,30.06,WSW,248,0.0,0.0,20,0.00,,,0.00,VWS V14.01,2013-01-05 12:50:00,
2013-01-05 07:51:00,30.2,-6.0,30.06,WSW,248,0.0,0.0,20,0.00,,,0.00,VWS V14.01,2013-01-05 12:51:00,
2013-01-05 07:54:00,30.2,-6.0,30.06,West,270,0.0,0.0,20,0.00,,,0.00,VWS V14.01,2013-01-05 12:54:00,
2013-01-05 07:55:00,30.2,-6.0,30.06,SSW,202,0.0,0.0,20,0.00,,,0.00,VWS V14.01,2013-01-05 12:55:00,
2013-01-05 07:56:00,30.4,-5.9,30.06,SSW,202,0.0,0.0,20,0.00,,,0.00,VWS V14.01,2013-01-05 12:56:00,
2013-01-05 07:59:00,30.4,-5.9,30.06,WSW,248,0.0,0.0,20,0.00,,,0.00,VWS V14.01,2013-01-05 12:59:00,
2013-01-05 08:00:00,30.4,-5.9,30.06,SSW,202,0.0,0.0,20,0.00,,,0.00,VWS V14.01,2013-01-05 13:00:00,
2013-01-05 08:01:00,30.4,-5.9,30.06,WSW,248,0.0,0.0,20,0.00,,,0.00,VWS V14.01,2013-01-05 13:01:00,
2013-01-05 08:04:00,30.4,-5.9,30.06,SW,225,0.0,0.0,20,0.00,,,0.00,VWS V14.01,2013-01-05 13:04:00,
2013-01-05 08:05:00,30.4,-5.9,30.06,SW,225,0.0,0.0,20,0.00,,,0.00,VWS V14.01,2013-01-05 13:05:00,
2013-01-05 08:06:00,30.4,-5.9,30.06,SW,225,0.0,0.0,20,0.00,,,0.00,VWS V14.01,2013-01-05 13:06:00,
2013-01-05 08:09:00,30.6,-5.7,30.09,NE,45,0.0,0.0,20,0.00,,,0.00,VWS V14.01,2013-01-05 13:09:00,
2013-01-05 08:10:00,30.6,-5.7,30.09,WNW,292,0.0,0.0,20,0.00,,,0.00,VWS V14.01,2013-01-05 13:10:00,
2013-01-05 08:11:00,30.6,-5.7,30.09,WNW,292,0.0,0.0,20,0.00,,,0.00,VWS V14.01,2013-01-05 13:11:00,
2013-01-05 08:14:00,30.7,-5.6,30.09,SW,225,0.0,0.0,20,0.00,,,0.00,VWS V14.01,2013-01-05 13:14:00,
2013-01-05 08:15:00,30.7,-5.6,30.09,SW,225,0.0,0.0,20,0.00,,,0.00,VWS V14.01,2013-01-05 13:15:00,
2013-01-05 08:16:00,30.7,-5.6,30.09,SSW,202,0.0,0.0,20,0.00,,,0.00,VWS V14.01,2013-01-05 13:16:00,
2013-01-05 08:17:00,30.7,-5.6,30.09,WSW,248,0.0,0.0,20,0.00,,,0.00,VWS V14.01,2013-01-05 13:17:00,
2013-01-05 08:19:00,30.9,-5.4,30.09,WSW,248,0.0,0.0,20,0.00,,,0.00,VWS V14.01,2013-01-05 13:19:00,
2013-01-05 08:20:00,31.1,-5.3,30.09,SSW,202,0.0,0.0,20,0.00,,,0.00,VWS V14.01,2013-01-05 13:20:00,
2013-01-05 08:21:00,31.1,-5.3,30.09,WSW,248,0.0,0.0,20,0.00,,,0.00,VWS V14.01,2013-01-05 13:21:00,
2013-01-05 08:22:00,31.1,-5.3,30.09,WNW,292,0.0,0.0,20,0.00,,,0.00,VWS V14.01,2013-01-05 13:22:00,
2013-01-05 08:24:00,31.1,-5.3,30.09,WSW,248,1.3,1.3,20,0.00,,,0.00,VWS V14.01,2013-01-05 13:24:00,
2013-01-05 08:25:00,31.1,-5.3,30.09,WSW,248,0.0,0.0,20,0.00,,,0.00,VWS V14.01,2013-01-05 13:25:00,
2013-01-05 08:26:00,31.1,-5.3,30.09,South,180,0.0,0.0,20,0.00,,,0.00,VWS V14.01,2013-01-05 13:26:00,
2013-01-05 08:27:00,31.1,-5.3,30.09,WNW,292,0.0,0.0,20,0.00,,,0.00,VWS V14.01,2013-01-05 13:27:00,
2013-01-05 08:29:00,31.5,-5.0,30.09,SW,225,0.0,0.0,20,0.00,,,0.00,VWS V14.01,2013-01-05 13:29:00,
2013-01-05 08:31:00,31.5,-5.0,30.09,WSW,248,0.0,0.0,20,0.00,,,0.00,VWS V14.01,2013-01-05 13:31:00,
2013-01-05 08:32:00,31.5,-5.0,30.09,WSW,248,0.0,0.0,20,0.00,,,0.00,VWS V14.01,2013-01-05 13:32:00,
2013-01-05 08:34:00,31.6,-4.8,30.09,SE,135,0.0,0.0,20,0.00,,,0.00,VWS V14.01,2013-01-05 13:34:00,
2013-01-05 08:36:00,31.8,-4.7,30.09,WSW,248,0.0,0.0,20,0.00,,,0.00,VWS V14.01,2013-01-05 13:36:00,
2013-01-05 08:37:00,31.8,-4.7,30.09,SSW,202,0.0,0.0,20,0.00,,,0.00,VWS V14.01,2013-01-05 13:37:00,
2013-01-05 08:39:00,32.0,-4.5,30.09,SW,225,0.0,0.0,20,0.00,,,0.00,VWS V14.01,2013-01-05 13:39:00,
2013-01-05 08:41:00,32.2,-4.4,30.09,SW,225,0.0,0.0,20,0.00,,,0.00,VWS V14.01,2013-01-05 13:41:00,
2013-01-05 08:42:00,32.2,-4.4,30.09,WNW,292,0.0,0.0,20,0.00,,,0.00,VWS V14.01,2013-01-05 13:42:00,
2013-01-05 08:44:00,32.4,-4.2,30.09,SW,225,0.0,0.0,20,0.00,,,0.00,VWS V14.01,2013-01-05 13:44:00,
2013-01-05 08:46:00,32.4,-4.2,30.09,SSW,202,0.0,0.0,20,0.00,,,0.00,VWS V14.01,2013-01-05 13:46:00,
2013-01-05 08:47:00,32.5,-4.1,30.09,WSW,248,0.0,0.0,20,0.00,,,0.00,VWS V14.01,2013-01-05 13:47:00,
2013-01-05 08:50:00,32.7,-3.9,30.09,SSW,202,0.0,0.0,20,0.00,,,0.00,VWS V14.01,2013-01-05 13:50:00,
2013-01-05 08:51:00,32.7,-3.9,30.09,SSE,158,0.0,0.0,20,0.00,,,0.00,VWS V14.01,2013-01-05 13:51:00,
2013-01-05 08:52:00,32.7,-3.9,30.09,WSW,248,0.0,0.0,20,0.00,,,0.00,VWS V14.01,2013-01-05 13:52:00,
2013-01-05 08:55:00,33.1,-3.6,30.09,West,270,0.0,0.9,20,0.00,,,0.00,VWS V14.01,2013-01-05 13:55:00,
2013-01-05 08:56:00,33.1,-3.6,30.09,SW,225,0.0,0.0,20,0.00,,,0.00,VWS V14.01,2013-01-05 13:56:00,
2013-01-05 08:58:00,33.3,-3.5,30.09,WNW,292,0.0,0.0,20,0.00,,,0.00,VWS V14.01,2013-01-05 13:58:00,
2013-01-05 09:00:00,33.4,-3.3,30.09,SW,225,0.0,0.0,20,0.00,,,0.00,VWS V14.01,2013-01-05 14:00:00,
2013-01-05 09:01:00,33.4,-3.3,30.09,SW,225,0.0,0.0,20,0.00,,,0.00,VWS V14.01,2013-01-05 14:01:00,
2013-01-05 09:03:00,33.6,-3.2,30.09,West,270,0.0,0.0,20,0.00,,,0.00,VWS V14.01,2013-01-05 14:03:00,
2013-01-05 09:05:00,33.8,-3.0,30.09,WNW,292,0.0,0.0,20,0.00,,,0.00,VWS V14.01,2013-01-05 14:05:00,
2013-01-05 09:06:00,33.8,-3.0,30.09,SSW,202,0.9,0.9,20,0.00,,,0.00,VWS V14.01,2013-01-05 14:06:00,
2013-01-05 09:07:00,33.8,-3.0,30.09,SSW,202,0.9,0.9,20,0.00,,,0.00,VWS V14.01,2013-01-05 14:07:00,
2013-01-05 09:08:00,34.0,-2.9,30.09,SSW,202,0.9,0.9,20,0.00,,,0.00,VWS V14.01,2013-01-05 14:08:00,
2013-01-05 09:10:00,34.2,-2.7,30.09,SSW,202,0.0,0.9,20,0.00,,,0.00,VWS V14.01,2013-01-05 14:10:00,
2013-01-05 09:11:00,34.3,-2.6,30.09,WNW,292,1.3,1.3,20,0.00,,,0.00,VWS V14.01,2013-01-05 14:11:00,
2013-01-05 09:12:00,34.3,-2.6,30.09,WNW,292,0.9,1.3,20,0.00,,,0.00,VWS V14.01,2013-01-05 14:12:00,
2013-01-05 09:13:00,34.5,-2.4,30.09,SSW,202,0.0,0.9,20,0.00,,,0.00,VWS V14.01,2013-01-05 14:13:00,
2013-01-05 09:15:00,34.7,-2.3,30.09,West,270,0.0,0.0,20,0.00,,,0.00,VWS V14.01,2013-01-05 14:15:00,
2013-01-05 09:17:00,34.9,-2.1,30.09,WSW,248,0.0,0.0,20,0.00,,,0.00,VWS V14.01,2013-01-05 14:17:00,
2013-01-05 09:18:00,35.1,-2.0,30.09,SSW,202,0.0,0.0,20,0.00,,,0.00,VWS V14.01,2013-01-05 14:18:00,
2013-01-05 09:20:00,35.4,-1.6,30.09,WNW,292,1.6,1.6,20,0.00,,,0.00,VWS V14.01,2013-01-05 14:20:00,
2013-01-05 09:22:00,35.6,-2.6,30.09,WNW,292,0.0,1.6,19,0.00,,,0.00,VWS V14.01,2013-01-05 14:22:00,
2013-01-05 09:23:00,35.8,-2.4,30.09,WNW,292,0.0,0.0,19,0.00,,,0.00,VWS V14.01,2013-01-05 14:23:00,
2013-01-05 09:26:00,36.3,-2.0,30.09,WNW,292,0.0,0.0,19,0.00,,,0.00,VWS V14.01,2013-01-05 14:26:00,
2013-01-05 09:27:00,36.3,-2.0,30.09,WNW,292,0.0,0.0,19,0.00,,,0.00,VWS V14.01,2013-01-05 14:27:00,
2013-01-05 09:28:00,36.5,-1.8,30.09,WNW,292,0.0,0.0,19,0.00,,,0.00,VWS V14.01,2013-01-05 14:28:00,
2013-01-05 09:31:00,37.2,-1.2,30.09,WNW,292,0.0,0.0,19,0.00,,,0.00,VWS V14.01,2013-01-05 14:31:00,
2013-01-05 09:32:00,37.4,-1.1,30.09,WNW,292,0.0,0.0,19,0.00,,,0.00,VWS V14.01,2013-01-05 14:32:00,
2013-01-05 09:33:00,37.6,-0.9,30.09,WNW,292,0.0,0.0,19,0.00,,,0.00,VWS V14.01,2013-01-05 14:33:00,
2013-01-05 09:37:00,38.3,-0.3,30.09,WNW,292,0.0,0.0,19,0.00,,,0.00,VWS V14.01,2013-01-05 14:37:00,
2013-01-05 09:38:00,38.7,0.0,30.09,WNW,292,0.0,0.0,19,0.00,,,0.00,VWS V14.01,2013-01-05 14:38:00,
2013-01-05 09:42:00,39.4,-0.6,30.09,WNW,292,0.0,0.0,18,0.00,,,0.00,VWS V14.01,2013-01-05 14:42:00,
2013-01-05 09:43:00,39.9,-0.1,30.09,WNW,292,0.0,0.0,18,0.00,,,0.00,VWS V14.01,2013-01-05 14:43:00,
2013-01-05 09:47:00,40.5,0.3,30.09,WNW,292,0.0,0.0,18,0.00,,,0.00,VWS V14.01,2013-01-05 14:47:00,
2013-01-05 09:48:00,40.6,0.5,30.09,WNW,292,0.0,0.0,18,0.00,,,0.00,VWS V14.01,2013-01-05 14:48:00,
2013-01-05 09:49:00,41.0,0.8,30.09,WNW,292,0.0,0.0,18,0.00,,,0.00,VWS V14.01,2013-01-05 14:49:00,
2013-01-05 09:52:00,41.5,1.2,30.09,WNW,292,0.0,0.0,18,0.00,,,0.00,VWS V14.01,2013-01-05 14:52:00,
2013-01-05 09:53:00,42.1,1.6,30.09,WNW,292,0.0,0.0,18,0.00,,,0.00,VWS V14.01,2013-01-05 14:53:00,
2013-01-05 09:54:00,42.1,1.6,30.09,WNW,292,0.0,0.0,18,0.00,,,0.00,VWS V14.01,2013-01-05 14:54:00,
2013-01-05 09:57:00,42.8,2.2,30.09,WNW,292,0.0,0.0,18,0.00,,,0.00,VWS V14.01,2013-01-05 14:57:00,
2013-01-05 09:58:00,43.0,2.4,30.09,WNW,292,0.0,0.0,18,0.00,,,0.00,VWS V14.01,2013-01-05 14:58:00,
2013-01-05 09:59:00,43.5,2.8,30.09,WNW,292,0.0,0.0,18,0.00,,,0.00,VWS V14.01,2013-01-05 14:59:00,
2013-01-05 10:02:00,44.1,3.3,30.09,WNW,292,0.0,0.0,18,0.00,,,0.00,VWS V14.01,2013-01-05 15:02:00,
2013-01-05 10:03:00,44.2,3.4,30.09,WNW,292,0.0,0.0,18,0.00,,,0.00,VWS V14.01,2013-01-05 15:03:00,
2013-01-05 10:04:00,44.6,2.5,30.09,WNW,292,0.0,0.0,17,0.00,,,0.00,VWS V14.01,2013-01-05 15:04:00,
2013-01-05 10:07:00,45.7,3.4,30.09,WNW,292,0.0,0.0,17,0.00,,,0.00,VWS V14.01,2013-01-05 15:07:00,
2013-01-05 10:08:00,45.9,3.5,30.09,WNW,292,0.0,0.0,17,0.00,,,0.00,VWS V14.01,2013-01-05 15:08:00,
2013-01-05 10:09:00,46.0,3.7,30.09,WNW,292,0.0,0.0,17,0.00,,,0.00,VWS V14.01,2013-01-05 15:09:00,
2013-01-05 10:12:00,46.6,4.1,30.12,WNW,292,0.0,0.0,17,0.00,,,0.00,VWS V14.01,2013-01-05 15:12:00,
2013-01-05 10:13:00,46.8,4.3,30.12,WNW,292,0.0,0.0,17,0.00,,,0.00,VWS V14.01,2013-01-05 15:13:00,
2013-01-05 10:14:00,46.9,4.4,30.12,WNW,292,0.0,0.0,17,0.00,,,0.00,VWS V14.01,2013-01-05 15:14:00,
2013-01-05 10:17:00,47.1,4.6,30.12,WNW,292,0.0,0.0,17,0.00,,,0.00,VWS V14.01,2013-01-05 15:17:00,
2013-01-05 10:18:00,47.5,4.8,30.12,WNW,292,0.0,0.0,17,0.00,,,0.00,VWS V14.01,2013-01-05 15:18:00,
2013-01-05 10:19:00,47.7,5.0,30.12,WNW,292,0.0,0.0,17,0.00,,,0.00,VWS V14.01,2013-01-05 15:19:00,
2013-01-05 10:22:00,48.6,4.4,30.12,WNW,292,0.0,0.0,16,0.00,,,0.00,VWS V14.01,2013-01-05 15:22:00,
2013-01-05 10:23:00,48.7,4.6,30.12,WNW,292,0.0,0.0,16,0.00,,,0.00,VWS V14.01,2013-01-05 15:23:00,
2013-01-05 10:24:00,48.7,4.6,30.12,WNW,292,0.0,0.0,16,0.00,,,0.00,VWS V14.01,2013-01-05 15:24:00,
2013-01-05 10:25:00,48.9,4.7,30.12,WNW,292,0.0,0.0,16,0.00,,,0.00,VWS V14.01,2013-01-05 15:25:00,
2013-01-05 10:27:00,49.6,5.3,30.12,WNW,292,0.0,0.0,16,0.00,,,0.00,VWS V14.01,2013-01-05 15:27:00,
2013-01-05 10:28:00,49.8,5.4,30.12,WNW,292,0.0,0.0,16,0.00,,,0.00,VWS V14.01,2013-01-05 15:28:00,
2013-01-05 10:29:00,50.0,5.6,30.12,WNW,292,0.0,0.0,16,0.00,,,0.00,VWS V14.01,2013-01-05 15:29:00,
2013-01-05 10:30:00,50.2,5.7,30.12,WNW,292,0.0,0.0,16,0.00,,,0.00,VWS V14.01,2013-01-05 15:30:00,
2013-01-05 10:32:00,51.1,6.5,30.12,WNW,292,0.0,0.0,16,0.00,,,0.00,VWS V14.01,2013-01-05 15:32:00,
2013-01-05 10:33:00,50.9,6.3,30.12,WNW,292,0.0,0.0,16,0.00,,,0.00,VWS V14.01,2013-01-05 15:33:00,
2013-01-05 10:34:00,51.1,6.5,30.12,WNW,292,0.0,0.0,16,0.00,,,0.00,VWS V14.01,2013-01-05 15:34:00,
2013-01-05 10:35:00,51.3,6.6,30.12,WNW,292,0.0,0.0,16,0.00,,,0.00,VWS V14.01,2013-01-05 15:35:00,
2013-01-05 10:37:00,51.8,7.1,30.12,WNW,292,0.0,0.0,16,0.00,,,0.00,VWS V14.01,2013-01-05 15:37:00,
2013-01-05 10:38:00,52.2,7.3,30.12,WNW,292,0.0,0.0,16,0.00,,,0.00,VWS V14.01,2013-01-05 15:38:00,
2013-01-05 10:39:00,52.3,7.5,30.12,WNW,292,0.0,0.0,16,0.00,,,0.00,VWS V14.01,2013-01-05 15:39:00,
2013-01-05 10:40:00,52.7,7.8,30.12,WNW,292,0.0,0.0,16,0.00,,,0.00,VWS V14.01,2013-01-05 15:40:00,
2013-01-05 10:43:00,53.1,8.1,30.12,WNW,292,0.0,0.0,16,0.00,,,0.00,VWS V14.01,2013-01-05 15:43:00,
2013-01-05 10:44:00,53.4,8.4,30.12,WNW,292,0.0,0.0,16,0.00,,,0.00,VWS V14.01,2013-01-05 15:44:00,
2013-01-05 10:45:00,53.6,7.1,30.12,WNW,292,0.0,0.0,15,0.00,,,0.00,VWS V14.01,2013-01-05 15:45:00,
2013-01-05 10:48:00,54.1,7.5,30.12,WNW,292,0.0,0.0,15,0.00,,,0.00,VWS V14.01,2013-01-05 15:48:00,
2013-01-05 10:49:00,54.3,7.7,30.12,WNW,292,0.0,0.0,15,0.00,,,0.00,VWS V14.01,2013-01-05 15:49:00,
2013-01-05 10:50:00,54.5,7.8,30.12,WNW,292,0.0,0.0,15,0.00,,,0.00,VWS V14.01,2013-01-05 15:50:00,
2013-01-05 10:53:00,54.7,8.0,30.12,WNW,292,0.0,0.0,15,0.00,,,0.00,VWS V14.01,2013-01-05 15:53:00,
2013-01-05 10:54:00,54.9,8.1,30.15,WNW,292,0.0,0.0,15,0.00,,,0.00,VWS V14.01,2013-01-05 15:54:00,
2013-01-05 10:55:00,55.0,8.2,30.15,WNW,292,0.0,0.0,15,0.00,,,0.00,VWS V14.01,2013-01-05 15:55:00,
2013-01-05 10:59:00,56.1,9.1,30.15,WNW,292,0.0,0.0,15,0.00,,,0.00,VWS V14.01,2013-01-05 15:59:00,
2013-01-05 11:00:00,56.1,9.1,30.15,WNW,292,0.0,0.0,15,0.00,,,0.00,VWS V14.01,2013-01-05 16:00:00,
2013-01-05 11:04:00,56.3,9.3,30.15,WNW,292,0.0,0.0,15,0.00,,,0.00,VWS V14.01,2013-01-05 16:04:00,
2013-01-05 11:05:00,56.3,9.3,30.15,WNW,292,0.0,0.0,15,0.00,,,0.00,VWS V14.01,2013-01-05 16:05:00,
2013-01-05 11:09:00,57.0,9.8,30.12,WNW,292,0.0,0.0,15,0.00,,,0.00,VWS V14.01,2013-01-05 16:09:00,
2013-01-05 11:10:00,57.0,9.8,30.12,WNW,292,0.0,0.0,15,0.00,,,0.00,VWS V14.01,2013-01-05 16:10:00,
2013-01-05 11:14:00,56.7,9.6,30.12,WNW,292,0.0,0.0,15,0.00,,,0.00,VWS V14.01,2013-01-05 16:14:00,
2013-01-05 11:15:00,56.8,9.7,30.12,WNW,292,0.0,0.0,15,0.00,,,0.00,VWS V14.01,2013-01-05 16:15:00,
2013-01-05 11:19:00,57.2,8.4,30.12,WNW,292,0.0,0.0,14,0.00,,,0.00,VWS V14.01,2013-01-05 16:19:00,
2013-01-05 11:20:00,57.9,9.0,30.12,WNW,292,0.0,0.0,14,0.00,,,0.00,VWS V14.01,2013-01-05 16:20:00,
2013-01-05 11:24:00,59.0,9.9,30.15,WNW,292,0.0,0.0,14,0.00,,,0.00,VWS V14.01,2013-01-05 16:24:00,
2013-01-05 11:26:00,59.5,10.3,30.15,WNW,292,0.0,0.0,14,0.00,,,0.00,VWS V14.01,2013-01-05 16:26:00,
2013-01-05 11:29:00,60.8,11.3,30.15,WNW,292,0.0,0.0,14,0.00,,,0.00,VWS V14.01,2013-01-05 16:29:00,
2013-01-05 11:30:00,60.8,11.3,30.15,WNW,292,0.0,0.0,14,0.00,,,0.00,VWS V14.01,2013-01-05 16:30:00,
2013-01-05 11:31:00,61.0,11.5,30.15,WNW,292,0.0,0.0,14,0.00,,,0.00,VWS V14.01,2013-01-05 16:31:00,
2013-01-05 11:34:00,62.1,12.3,30.15,WNW,292,0.0,0.0,14,0.00,,,0.00,VWS V14.01,2013-01-05 16:34:00,
2013-01-05 11:35:00,62.2,12.5,30.15,WNW,292,0.0,0.0,14,0.00,,,0.00,VWS V14.01,2013-01-05 16:35:00,
2013-01-05 11:36:00,62.4,12.6,30.15,WNW,292,0.0,0.0,14,0.00,,,0.00,VWS V14.01,2013-01-05 16:36:00,
2013-01-05 11:39:00,63.5,11.8,30.12,WNW,292,0.0,0.0,13,0.00,,,0.00,VWS V14.01,2013-01-05 16:39:00,
2013-01-05 11:40:00,63.5,11.8,30.12,WNW,292,0.0,0.0,13,0.00,,,0.00,VWS V14.01,2013-01-05 16:40:00,
2013-01-05 11:41:00,64.0,12.2,30.12,WNW,292,0.0,0.0,13,0.00,,,0.00,VWS V14.01,2013-01-05 16:41:00,
2013-01-05 11:44:00,64.9,12.9,30.12,WNW,292,0.0,0.0,13,0.00,,,0.00,VWS V14.01,2013-01-05 16:44:00,
2013-01-05 11:45:00,64.9,12.9,30.12,WNW,292,0.0,0.0,13,0.00,,,0.00,VWS V14.01,2013-01-05 16:45:00,
2013-01-05 11:46:00,65.3,13.2,30.12,WNW,292,0.0,0.0,13,0.00,,,0.00,VWS V14.01,2013-01-05 16:46:00,
2013-01-05 11:49:00,66.0,13.8,30.12,WNW,292,0.0,0.0,13,0.00,,,0.00,VWS V14.01,2013-01-05 16:49:00,
2013-01-05 11:50:00,66.2,12.1,30.12,WNW,292,0.0,0.0,12,0.00,,,0.00,VWS V14.01,2013-01-05 16:50:00,
2013-01-05 11:51:00,66.4,12.3,30.12,WNW,292,0.0,0.0,12,0.00,,,0.00,VWS V14.01,2013-01-05 16:51:00,
2013-01-05 11:54:00,66.7,12.5,30.09,WNW,292,0.0,0.0,12,0.00,,,0.00,VWS V14.01,2013-01-05 16:54:00,
2013-01-05 11:55:00,66.9,12.7,30.09,WNW,292,0.0,0.0,12,0.00,,,0.00,VWS V14.01,2013-01-05 16:55:00,
2013-01-05 11:56:00,67.1,12.8,30.09,WNW,292,0.0,0.0,12,0.00,,,0.00,VWS V14.01,2013-01-05 16:56:00,
2013-01-05 11:59:00,66.9,12.7,30.09,SW,225,0.0,0.0,12,0.00,,,0.00,VWS V14.01,2013-01-05 16:59:00,
2013-01-05 12:00:00,66.9,12.7,30.09,SW,225,0.0,0.0,12,0.00,,,0.00,VWS V14.01,2013-01-05 17:00:00,
2013-01-05 12:01:00,67.1,12.8,30.09,SW,225,0.0,0.0,12,0.00,,,0.00,VWS V14.01,2013-01-05 17:01:00,
2013-01-05 12:05:00,67.8,13.4,30.09,SW,225,0.0,0.0,12,0.00,,,0.00,VWS V14.01,2013-01-05 17:05:00,
2013-01-05 12:06:00,68.0,13.5,30.09,SW,225,0.0,0.0,12,0.00,,,0.00,VWS V14.01,2013-01-05 17:06:00,
2013-01-05 12:10:00,68.4,13.8,30.09,SW,225,0.0,0.0,12,0.00,,,0.00,VWS V14.01,2013-01-05 17:10:00,
2013-01-05 12:11:00,68.4,13.8,30.09,SW,225,0.0,0.0,12,0.00,,,0.00,VWS V14.01,2013-01-05 17:11:00,
2013-01-05 12:15:00,69.1,14.4,30.09,SW,225,0.0,0.0,12,0.00,,,0.00,VWS V14.01,2013-01-05 17:15:00,
2013-01-05 12:16:00,69.4,14.6,30.09,SW,225,0.0,0.0,12,0.00,,,0.00,VWS V14.01,2013-01-05 17:16:00,
2013-01-05 12:20:00,70.3,15.4,30.09,SW,225,0.0,0.0,12,0.00,,,0.00,VWS V14.01,2013-01-05 17:20:00,
2013-01-05 12:21:00,70.5,15.5,30.09,SW,225,0.0,0.0,12,0.00,,,0.00,VWS V14.01,2013-01-05 17:21:00,
2013-01-05 12:25:00,70.3,15.4,30.09,SW,225,0.0,0.0,12,0.00,,,0.00,VWS V14.01,2013-01-05 17:25:00,
2013-01-05 12:26:00,70.3,15.4,30.09,SW,225,0.0,0.0,12,0.00,,,0.00,VWS V14.01,2013-01-05 17:26:00,
2013-01-05 12:30:00,70.5,15.5,30.09,SW,225,0.0,0.0,12,0.00,,,0.00,VWS V14.01,2013-01-05 17:30:00,
2013-01-05 12:31:00,70.7,15.6,30.09,SW,225,0.0,0.0,12,0.00,,,0.00,VWS V14.01,2013-01-05 17:31:00,
2013-01-05 12:35:00,71.2,16.1,30.09,SW,225,0.0,0.0,12,0.00,,,0.00,VWS V14.01,2013-01-05 17:35:00,
2013-01-05 12:36:00,71.2,16.1,30.09,SW,225,0.0,0.0,12,0.00,,,0.00,VWS V14.01,2013-01-05 17:36:00,
2013-01-05 12:37:00,71.6,14.4,30.09,SW,225,0.0,0.0,11,0.00,,,0.00,VWS V14.01,2013-01-05 17:37:00,
2013-01-05 12:40:00,72.3,14.9,30.09,SW,225,0.0,0.0,11,0.00,,,0.00,VWS V14.01,2013-01-05 17:40:00,
2013-01-05 12:41:00,72.3,14.9,30.09,SW,225,0.0,0.0,11,0.00,,,0.00,VWS V14.01,2013-01-05 17:41:00,
2013-01-05 12:42:00,72.5,15.0,30.09,SW,225,0.0,0.0,11,0.00,,,0.00,VWS V14.01,2013-01-05 17:42:00,
2013-01-05 12:45:00,71.6,14.4,30.09,SW,225,0.0,0.0,11,0.00,,,0.00,VWS V14.01,2013-01-05 17:45:00,
2013-01-05 12:46:00,71.6,14.4,30.09,SW,225,0.0,0.0,11,0.00,,,0.00,VWS V14.01,2013-01-05 17:46:00,
2013-01-05 12:47:00,71.8,14.5,30.09,SW,225,0.0,0.0,11,0.00,,,0.00,VWS V14.01,2013-01-05 17:47:00,
2013-01-05 12:50:00,72.0,14.6,30.09,SW,225,0.0,0.0,11,0.00,,,0.00,VWS V14.01,2013-01-05 17:50:00,
2013-01-05 12:51:00,72.1,14.8,30.09,SW,225,0.0,0.0,11,0.00,,,0.00,VWS V14.01,2013-01-05 17:51:00,
2013-01-05 12:52:00,72.3,14.9,30.09,SW,225,0.0,0.0,11,0.00,,,0.00,VWS V14.01,2013-01-05 17:52:00,
2013-01-05 12:55:00,73.2,15.6,30.12,SW,225,0.0,0.0,11,0.00,,,0.00,VWS V14.01,2013-01-05 17:55:00,
2013-01-05 12:56:00,73.4,15.7,30.12,SW,225,0.0,0.0,11,0.00,,,0.00,VWS V14.01,2013-01-05 17:56:00,
2013-01-05 12:57:00,73.6,15.9,30.12,SW,225,0.0,0.0,11,0.00,,,0.00,VWS V14.01,2013-01-05 17:57:00,
2013-01-05 13:00:00,73.2,15.6,30.12,SW,225,0.0,0.0,11,0.00,,,0.00,VWS V14.01,2013-01-05 18:00:00,
2013-01-05 13:01:00,73.2,15.6,30.12,SW,225,0.0,0.0,11,0.00,,,0.00,VWS V14.01,2013-01-05 18:01:00,
2013-01-05 13:02:00,73.0,15.5,30.12,SW,225,0.0,0.0,11,0.00,,,0.00,VWS V14.01,2013-01-05 18:02:00,
2013-01-05 13:05:00,73.0,15.5,30.12,SW,225,0.0,0.0,11,0.00,,,0.00,VWS V14.01,2013-01-05 18:05:00,
2013-01-05 13:06:00,73.0,15.5,30.12,SW,225,0.0,0.0,11,0.00,,,0.00,VWS V14.01,2013-01-05 18:06:00,
2013-01-05 13:07:00,72.0,14.6,30.12,SW,225,0.0,0.0,11,0.00,,,0.00,VWS V14.01,2013-01-05 18:07:00,
2013-01-05 13:10:00,71.4,16.2,30.09,SW,225,0.0,0.0,12,0.00,,,0.00,VWS V14.01,2013-01-05 18:10:00,
2013-01-05 13:11:00,71.2,16.1,30.09,SW,225,0.0,0.0,12,0.00,,,0.00,VWS V14.01,2013-01-05 18:11:00,
2013-01-05 13:12:00,71.2,16.1,30.09,SW,225,0.0,0.0,12,0.00,,,0.00,VWS V14.01,2013-01-05 18:12:00,
2013-01-05 13:15:00,71.2,16.1,30.09,SW,225,0.0,0.0,12,0.00,,,0.00,VWS V14.01,2013-01-05 18:15:00,
2013-01-05 13:16:00,71.4,16.2,30.09,SW,225,0.0,0.0,12,0.00,,,0.00,VWS V14.01,2013-01-05 18:16:00,
2013-01-05 13:17:00,71.6,14.4,30.09,SW,225,0.0,0.0,11,0.00,,,0.00,VWS V14.01,2013-01-05 18:17:00,
2013-01-05 13:20:00,71.8,14.5,30.09,SW,225,0.0,0.0,11,0.00,,,0.00,VWS V14.01,2013-01-05 18:20:00,
2013-01-05 13:21:00,72.0,14.6,30.09,SW,225,0.0,0.0,11,0.00,,,0.00,VWS V14.01,2013-01-05 18:21:00,
2013-01-05 13:22:00,71.6,14.4,30.09,SW,225,0.0,0.0,11,0.00,,,0.00,VWS V14.01,2013-01-05 18:22:00,
2013-01-05 13:25:00,72.0,14.6,30.09,SW,225,0.0,0.0,11,0.00,,,0.00,VWS V14.01,2013-01-05 18:25:00,
2013-01-05 13:26:00,72.1,14.8,30.09,SW,225,0.0,0.0,11,0.00,,,0.00,VWS V14.01,2013-01-05 18:26:00,
2013-01-05 13:27:00,72.3,14.9,30.09,SW,225,0.0,0.0,11,0.00,,,0.00,VWS V14.01,2013-01-05 18:27:00,
2013-01-05 13:30:00,72.5,15.0,30.09,SW,225,0.0,0.0,11,0.00,,,0.00,VWS V14.01,2013-01-05 18:30:00,
2013-01-05 13:31:00,72.5,15.0,30.09,SW,225,0.0,0.0,11,0.00,,,0.00,VWS V14.01,2013-01-05 18:31:00,
2013-01-05 13:32:00,72.5,15.0,30.09,SW,225,0.0,0.0,11,0.00,,,0.00,VWS V14.01,2013-01-05 18:32:00,
2013-01-05 13:36:00,72.9,15.3,30.09,SW,225,0.0,0.0,11,0.00,,,0.00,VWS V14.01,2013-01-05 18:36:00,
2013-01-05 13:37:00,72.9,20.9,30.09,SW,225,0.0,0.0,14,0.00,,,0.00,VWS V14.01,2013-01-05 18:37:00,
2013-01-05 13:41:00,72.9,20.9,30.09,SW,225,0.0,0.0,14,0.00,,,0.00,VWS V14.01,2013-01-05 18:41:00,
2013-01-05 13:42:00,73.2,21.2,30.09,SW,225,0.0,0.0,14,0.00,,,0.00,VWS V14.01,2013-01-05 18:42:00,
2013-01-05 13:43:00,73.4,15.7,30.09,SW,225,0.0,0.0,11,0.00,,,0.00,VWS V14.01,2013-01-05 18:43:00,
2013-01-05 13:46:00,74.1,16.3,30.09,SW,225,0.0,0.0,11,0.00,,,0.00,VWS V14.01,2013-01-05 18:46:00,
2013-01-05 13:47:00,74.5,16.6,30.09,SW,225,0.0,0.0,11,0.00,,,0.00,VWS V14.01,2013-01-05 18:47:00,
2013-01-05 13:48:00,74.7,20.6,30.09,SW,225,0.0,0.0,13,0.00,,,0.00,VWS V14.01,2013-01-05 18:48:00,
2013-01-05 13:51:00,75.4,21.2,30.09,SW,225,0.0,0.0,13,0.00,,,0.00,VWS V14.01,2013-01-05 18:51:00,
2013-01-05 13:52:00,75.6,21.3,30.09,SW,225,0.0,0.0,13,0.00,,,0.00,VWS V14.01,2013-01-05 18:52:00,
2013-01-05 13:53:00,75.7,21.5,30.09,SW,225,0.0,0.0,13,0.00,,,0.00,VWS V14.01,2013-01-05 18:53:00,
2013-01-05 13:56:00,75.2,21.0,30.09,SW,225,0.0,0.0,13,0.00,,,0.00,VWS V14.01,2013-01-05 18:56:00,
2013-01-05 13:57:00,75.2,21.0,30.09,SW,225,0.0,0.0,13,0.00,,,0.00,VWS V14.01,2013-01-05 18:57:00,
2013-01-05 13:58:00,75.4,21.2,30.09,SW,225,0.0,0.0,13,0.00,,,0.00,VWS V14.01,2013-01-05 18:58:00,
2013-01-05 14:01:00,75.2,14.9,30.09,SW,225,0.0,0.0,10,0.00,,,0.00,VWS V14.01,2013-01-05 19:01:00,
2013-01-05 14:02:00,75.2,14.9,30.09,SW,225,0.0,0.0,10,0.00,,,0.00,VWS V14.01,2013-01-05 19:02:00,
2013-01-05 14:03:00,75.2,14.9,30.09,SW,225,0.0,0.0,10,0.00,,,0.00,VWS V14.01,2013-01-05 19:03:00,
2013-01-05 14:06:00,74.8,16.9,30.09,SW,225,0.0,0.0,11,0.00,,,0.00,VWS V14.01,2013-01-05 19:06:00,
2013-01-05 14:07:00,74.8,16.9,30.09,SW,225,0.0,0.0,11,0.00,,,0.00,VWS V14.01,2013-01-05 19:07:00,
2013-01-05 14:08:00,74.8,16.9,30.09,SW,225,0.0,0.0,11,0.00,,,0.00,VWS V14.01,2013-01-05 19:08:00,
2013-01-05 14:11:00,75.0,17.0,30.06,SW,225,0.0,0.0,11,0.00,,,0.00,VWS V14.01,2013-01-05 19:11:00,
2013-01-05 14:12:00,75.0,17.0,30.06,SW,225,0.0,0.0,11,0.00,,,0.00,VWS V14.01,2013-01-05 19:12:00,
2013-01-05 14:13:00,75.0,17.0,30.06,SW,225,0.0,0.0,11,0.00,,,0.00,VWS V14.01,2013-01-05 19:13:00,
2013-01-05 14:16:00,75.4,21.2,30.06,SW,225,0.0,0.0,13,0.00,,,0.00,VWS V14.01,2013-01-05 19:16:00,
2013-01-05 14:17:00,75.6,21.3,30.06,SW,225,0.0,0.0,13,0.00,,,0.00,VWS V14.01,2013-01-05 19:17:00,
2013-01-05 14:18:00,75.6,21.3,30.06,SW,225,0.0,0.0,13,0.00,,,0.00,VWS V14.01,2013-01-05 19:18:00,
2013-01-05 14:21:00,76.1,21.7,30.06,SW,225,0.0,0.0,13,0.00,,,0.00,VWS V14.01,2013-01-05 19:21:00,
2013-01-05 14:22:00,76.1,21.7,30.06,SW,225,0.0,0.0,13,0.00,,,0.00,VWS V14.01,2013-01-05 19:22:00,
2013-01-05 14:23:00,76.1,21.7,30.06,SW,225,0.0,0.0,13,0.00,,,0.00,VWS V14.01,2013-01-05 19:23:00,
2013-01-05 14:26:00,75.9,21.6,30.09,SW,225,0.0,0.0,13,0.00,,,0.00,VWS V14.01,2013-01-05 19:26:00,
2013-01-05 14:27:00,75.9,21.6,30.09,SW,225,0.0,0.0,13,0.00,,,0.00,VWS V14.01,2013-01-05 19:27:00,
2013-01-05 14:28:00,76.1,21.7,30.09,SW,225,0.0,0.0,13,0.00,,,0.00,VWS V14.01,2013-01-05 19:28:00,
2013-01-05 14:32:00,75.7,21.5,30.09,SW,225,0.0,0.0,13,0.00,,,0.00,VWS V14.01,2013-01-05 19:32:00,
2013-01-05 14:33:00,75.7,15.4,30.09,SW,225,0.0,0.0,10,0.00,,,0.00,VWS V14.01,2013-01-05 19:33:00,
2013-01-05 14:37:00,75.4,15.1,30.09,SW,225,0.0,0.0,10,0.00,,,0.00,VWS V14.01,2013-01-05 19:37:00,
2013-01-05 14:38:00,75.2,14.9,30.09,SW,225,0.0,0.0,10,0.00,,,0.00,VWS V14.01,2013-01-05 19:38:00,
2013-01-05 14:42:00,73.8,16.0,30.06,SW,225,0.0,0.0,11,0.00,,,0.00,VWS V14.01,2013-01-05 19:42:00,
2013-01-05 14:43:00,73.0,15.5,30.06,SW,225,0.0,0.0,11,0.00,,,0.00,VWS V14.01,2013-01-05 19:43:00,
2013-01-05 14:47:00,72.0,14.6,30.06,SW,225,0.0,0.0,11,0.00,,,0.00,VWS V14.01,2013-01-05 19:47:00,
2013-01-05 14:48:00,72.0,14.6,30.06,SW,225,0.0,0.0,11,0.00,,,0.00,VWS V14.01,2013-01-05 19:48:00,
2013-01-05 14:52:00,70.0,15.1,30.06,SW,225,0.0,0.0,12,0.00,,,0.00,VWS V14.01,2013-01-05 19:52:00,
2013-01-05 14:53:00,69.6,14.8,30.06,SW,225,0.0,0.0,12,0.00,,,0.00,VWS V14.01,2013-01-05 19:53:00,
2013-01-05 14:57:00,68.0,13.5,30.09,SW,225,0.0,0.0,12,0.00,,,0.00,VWS V14.01,2013-01-05 19:57:00,
2013-01-05 14:58:00,67.8,13.4,30.09,SW,225,0.0,0.0,12,0.00,,,0.00,VWS V14.01,2013-01-05 19:58:00,
2013-01-05 15:02:00,67.6,13.2,30.09,SW,225,0.0,0.0,12,0.00,,,0.00,VWS V14.01,2013-01-05 20:02:00,
2013-01-05 15:03:00,67.6,13.2,30.09,SW,225,0.0,0.0,12,0.00,,,0.00,VWS V14.01,2013-01-05 20:03:00,
2013-01-05 15:08:00,67.6,13.2,30.09,SW,225,0.0,0.0,12,0.00,,,0.00,VWS V14.01,2013-01-05 20:08:00,
2013-01-05 15:09:00,67.6,13.2,30.09,SW,225,0.0,0.0,12,0.00,,,0.00,VWS V14.01,2013-01-05 20:09:00,
2013-01-05 15:13:00,67.3,13.0,30.09,SW,225,0.0,0.0,12,0.00,,,0.00,VWS V14.01,2013-01-05 20:13:00,
2013-01-05 15:14:00,67.3,13.0,30.09,SW,225,0.0,0.0,12,0.00,,,0.00,VWS V14.01,2013-01-05 20:14:00,
2013-01-05 15:18:00,67.1,12.8,30.09,SW,225,0.0,0.0,12,0.00,,,0.00,VWS V14.01,2013-01-05 20:18:00,
2013-01-05 15:19:00,67.1,12.8,30.09,SW,225,0.0,0.0,12,0.00,,,0.00,VWS V14.01,2013-01-05 20:19:00,
2013-01-05 15:23:00,67.1,12.8,30.09,SW,225,0.0,0.0,12,0.00,,,0.00,VWS V14.01,2013-01-05 20:23:00,
2013-01-05 15:24:00,67.1,12.8,30.09,SW,225,0.0,0.0,12,0.00,,,0.00,VWS V14.01,2013-01-05 20:24:00,
2013-01-05 15:28:00,67.3,13.0,30.09,SW,225,0.0,0.0,12,0.00,,,0.00,VWS V14.01,2013-01-05 20:28:00,
2013-01-05 15:29:00,67.3,13.0,30.09,SW,225,0.0,0.0,12,0.00,,,0.00,VWS V14.01,2013-01-05 20:29:00,
2013-01-05 15:33:00,66.9,12.7,30.09,SW,225,0.0,0.0,12,0.00,,,0.00,VWS V14.01,2013-01-05 20:33:00,
2013-01-05 15:34:00,66.9,12.7,30.09,SW,225,0.0,0.0,12,0.00,,,0.00,VWS V14.01,2013-01-05 20:34:00,
2013-01-05 15:38:00,66.6,12.4,30.09,SW,225,0.0,0.0,12,0.00,,,0.00,VWS V14.01,2013-01-05 20:38:00,
2013-01-05 15:39:00,66.4,12.3,30.12,SW,225,0.0,0.0,12,0.00,,,0.00,VWS V14.01,2013-01-05 20:39:00,
2013-01-05 15:43:00,65.3,13.2,30.12,SW,225,0.0,0.0,13,0.00,,,0.00,VWS V14.01,2013-01-05 20:43:00,
2013-01-05 15:44:00,64.9,12.9,30.12,SW,225,0.0,0.0,13,0.00,,,0.00,VWS V14.01,2013-01-05 20:44:00,
2013-01-05 15:48:00,63.5,11.8,30.12,SW,225,0.0,0.0,13,0.00,,,0.00,VWS V14.01,2013-01-05 20:48:00,
2013-01-05 15:49:00,63.5,11.8,30.12,SW,225,0.0,0.0,13,0.00,,,0.00,VWS V14.01,2013-01-05 20:49:00,
2013-01-05 15:50:00,63.0,11.4,30.12,SW,225,0.0,0.0,13,0.00,,,0.00,VWS V14.01,2013-01-05 20:50:00,
2013-01-05 15:53:00,61.9,12.2,30.12,SW,225,0.0,0.0,14,0.00,,,0.00,VWS V14.01,2013-01-05 20:53:00,
2013-01-05 15:54:00,61.9,12.2,30.12,SW,225,0.0,0.0,14,0.00,,,0.00,VWS V14.01,2013-01-05 20:54:00,
2013-01-05 15:55:00,61.5,11.9,30.09,SW,225,0.0,0.0,14,0.00,,,0.00,VWS V14.01,2013-01-05 20:55:00,
2013-01-05 15:59:00,60.4,11.0,30.09,SW,225,0.0,0.0,14,0.00,,,0.00,VWS V14.01,2013-01-05 20:59:00,
2013-01-05 16:00:00,59.2,10.0,30.09,SW,225,0.0,0.0,14,0.00,,,0.00,VWS V14.01,2013-01-05 21:00:00,
2013-01-05 16:04:00,57.4,5.2,30.09,SW,225,0.0,0.0,12,0.00,,,0.00,VWS V14.01,2013-01-05 21:04:00,
2013-01-05 16:05:00,56.7,4.6,30.09,SW,225,0.0,0.0,12,0.00,,,0.00,VWS V14.01,2013-01-05 21:05:00,
2013-01-05 16:09:00,55.0,5.1,30.09,SW,225,0.0,0.0,13,0.00,,,0.00,VWS V14.01,2013-01-05 21:09:00,
2013-01-05 16:10:00,54.3,4.5,30.09,SW,225,0.0,0.0,13,0.00,,,0.00,VWS V14.01,2013-01-05 21:10:00,
2013-01-05 16:14:00,52.9,3.4,30.09,SW,225,0.0,0.0,13,0.00,,,0.00,VWS V14.01,2013-01-05 21:14:00,
2013-01-05 16:15:00,52.7,3.2,30.09,SW,225,0.0,0.0,13,0.00,,,0.00,VWS V14.01,2013-01-05 21:15:00,
2013-01-05 16:19:00,51.1,3.6,30.09,SW,225,0.0,0.0,14,0.00,,,0.00,VWS V14.01,2013-01-05 21:19:00,
2013-01-05 16:20:00,50.7,3.3,30.09,SW,225,0.0,0.0,14,0.00,,,0.00,VWS V14.01,2013-01-05 21:20:00,
2013-01-05 16:24:00,49.6,2.4,30.09,SW,225,0.0,0.0,14,0.00,,,0.00,VWS V14.01,2013-01-05 21:24:00,
2013-01-05 16:25:00,49.5,2.3,30.09,SW,225,0.0,0.0,14,0.00,,,0.00,VWS V14.01,2013-01-05 21:25:00,
2013-01-05 16:29:00,48.2,1.2,30.09,SW,225,0.0,0.0,14,0.00,,,0.00,VWS V14.01,2013-01-05 21:29:00,
2013-01-05 16:30:00,48.0,1.1,30.09,SW,225,0.0,0.0,14,0.00,,,0.00,VWS V14.01,2013-01-05 21:30:00,
2013-01-05 16:34:00,46.8,0.1,30.09,SW,225,0.0,0.0,14,0.00,,,0.00,VWS V14.01,2013-01-05 21:34:00,
2013-01-05 16:35:00,46.8,0.1,30.09,SW,225,0.0,0.0,14,0.00,,,0.00,VWS V14.01,2013-01-05 21:35:00,
2013-01-05 16:39:00,45.9,0.8,30.09,SW,225,0.0,0.0,15,0.00,,,0.00,VWS V14.01,2013-01-05 21:39:00,
2013-01-05 16:40:00,45.5,0.6,30.09,SW,225,0.0,0.0,15,0.00,,,0.00,VWS V14.01,2013-01-05 21:40:00,
2013-01-05 16:41:00,45.3,0.4,30.09,SW,225,0.0,0.0,15,0.00,,,0.00,VWS V14.01,2013-01-05 21:41:00,
2013-01-05 16:44:00,44.6,-0.2,30.09,SW,225,0.0,0.0,15,0.00,,,0.00,VWS V14.01,2013-01-05 21:44:00,
2013-01-05 16:45:00,44.4,-0.3,30.09,SW,225,0.0,0.0,15,0.00,,,0.00,VWS V14.01,2013-01-05 21:45:00,
2013-01-05 16:46:00,44.2,-0.5,30.09,SW,225,0.0,0.0,15,0.00,,,0.00,VWS V14.01,2013-01-05 21:46:00,
2013-01-05 16:49:00,43.5,-1.1,30.09,SW,225,0.0,0.0,15,0.00,,,0.00,VWS V14.01,2013-01-05 21:49:00,
2013-01-05 16:50:00,43.5,-1.1,30.09,SW,225,0.0,0.0,15,0.00,,,0.00,VWS V14.01,2013-01-05 21:50:00,
2013-01-05 16:51:00,43.2,-1.4,30.09,SW,225,0.0,0.0,15,0.00,,,0.00,VWS V14.01,2013-01-05 21:51:00,
2013-01-05 16:54:00,42.6,-0.4,30.06,SW,225,0.0,0.0,16,0.00,,,0.00,VWS V14.01,2013-01-05 21:54:00,
2013-01-05 16:55:00,42.4,-0.6,30.06,SW,225,0.0,0.0,16,0.00,,,0.00,VWS V14.01,2013-01-05 21:55:00,
2013-01-05 16:56:00,42.4,-0.6,30.06,SW,225,0.0,0.0,16,0.00,,,0.00,VWS V14.01,2013-01-05 21:56:00,
2013-01-05 16:59:00,41.7,-1.2,30.06,SW,225,0.0,0.0,16,0.00,,,0.00,VWS V14.01,2013-01-05 21:59:00,
2013-01-05 17:00:00,41.7,-1.2,30.06,SW,225,0.0,0.0,16,0.00,,,0.00,VWS V14.01,2013-01-05 22:00:00,
2013-01-05 17:01:00,41.5,-1.3,30.06,SW,225,0.0,0.0,16,0.00,,,0.00,VWS V14.01,2013-01-05 22:01:00,
2013-01-05 17:04:00,41.0,-1.7,30.06,SW,225,0.0,0.0,16,0.00,,,0.00,VWS V14.01,2013-01-05 22:04:00,
2013-01-05 17:05:00,41.0,-1.7,30.06,SW,225,0.0,0.0,16,0.00,,,0.00,VWS V14.01,2013-01-05 22:05:00,
2013-01-05 17:06:00,40.8,-1.9,30.06,SW,225,0.0,0.0,16,0.00,,,0.00,VWS V14.01,2013-01-05 22:06:00,
2013-01-05 17:09:00,40.5,-2.2,30.09,SW,225,0.0,0.0,16,0.00,,,0.00,VWS V14.01,2013-01-05 22:09:00,
2013-01-05 17:10:00,40.5,-2.2,30.09,SW,225,0.0,0.0,16,0.00,,,0.00,VWS V14.01,2013-01-05 22:10:00,
2013-01-05 17:11:00,40.3,-2.3,30.09,SW,225,0.0,0.0,16,0.00,,,0.00,VWS V14.01,2013-01-05 22:11:00,
2013-01-05 17:14:00,39.9,-2.6,30.09,SW,225,0.0,0.0,16,0.00,,,0.00,VWS V14.01,2013-01-05 22:14:00,
2013-01-05 17:15:00,39.9,-2.6,30.09,SW,225,0.0,0.0,16,0.00,,,0.00,VWS V14.01,2013-01-05 22:15:00,
2013-01-05 17:16:00,39.7,-2.8,30.09,SW,225,0.0,0.0,16,0.00,,,0.00,VWS V14.01,2013-01-05 22:16:00,
2013-01-05 17:20:00,39.4,-3.1,30.09,SW,225,0.0,0.0,16,0.00,,,0.00,VWS V14.01,2013-01-05 22:20:00,
2013-01-05 17:21:00,39.2,-3.2,30.09,SW,225,0.0,0.0,16,0.00,,,0.00,VWS V14.01,2013-01-05 22:21:00,
2013-01-05 17:25:00,38.8,-3.5,30.09,SW,225,0.0,0.0,16,0.00,,,0.00,VWS V14.01,2013-01-05 22:25:00,
2013-01-05 17:26:00,38.7,-3.7,30.09,SW,225,0.0,0.0,16,0.00,,,0.00,VWS V14.01,2013-01-05 22:26:00,
2013-01-05 17:30:00,38.5,-3.8,30.09,SW,225,0.0,0.0,16,0.00,,,0.00,VWS V14.01,2013-01-05 22:30:00,
2013-01-05 17:31:00,38.5,-3.8,30.09,SW,225,0.0,0.0,16,0.00,,,0.00,VWS V14.01,2013-01-05 22:31:00,
2013-01-05 17:35:00,38.1,-4.1,30.09,SW,225,0.0,0.0,16,0.00,,,0.00,VWS V14.01,2013-01-05 22:35:00,
2013-01-05 17:36:00,38.1,-4.1,30.09,SW,225,0.0,0.0,16,0.00,,,0.00,VWS V14.01,2013-01-05 22:36:00,
2013-01-05 17:37:00,37.9,-4.2,30.09,SW,225,0.0,0.0,16,0.00,,,0.00,VWS V14.01,2013-01-05 22:37:00,
2013-01-05 17:40:00,37.9,-4.2,30.09,SW,225,0.0,0.0,16,0.00,,,0.00,VWS V14.01,2013-01-05 22:40:00,
2013-01-05 17:41:00,37.9,-4.2,30.09,SW,225,0.0,0.0,16,0.00,,,0.00,VWS V14.01,2013-01-05 22:41:00,
2013-01-05 17:42:00,37.8,-4.4,30.09,SW,225,0.0,0.0,16,0.00,,,0.00,VWS V14.01,2013-01-05 22:42:00,
2013-01-05 17:45:00,37.6,-4.5,30.09,SW,225,0.0,0.0,16,0.00,,,0.00,VWS V14.01,2013-01-05 22:45:00,
2013-01-05 17:46:00,37.6,-4.5,30.09,SW,225,0.0,0.0,16,0.00,,,0.00,VWS V14.01,2013-01-05 22:46:00,
2013-01-05 17:47:00,37.6,-4.5,30.09,SW,225,0.0,0.0,16,0.00,,,0.00,VWS V14.01,2013-01-05 22:47:00,
2013-01-05 17:50:00,37.4,-4.7,30.09,SW,225,0.0,0.0,16,0.00,,,0.00,VWS V14.01,2013-01-05 22:50:00,
2013-01-05 17:51:00,37.4,-4.7,30.09,SW,225,0.0,0.0,16,0.00,,,0.00,VWS V14.01,2013-01-05 22:51:00,
2013-01-05 17:52:00,37.4,-4.7,30.09,SW,225,0.0,0.0,16,0.00,,,0.00,VWS V14.01,2013-01-05 22:52:00,
2013-01-05 17:55:00,37.2,-3.6,30.09,SW,225,0.0,0.0,17,0.00,,,0.00,VWS V14.01,2013-01-05 22:55:00,
2013-01-05 17:56:00,37.2,-3.6,30.09,SW,225,0.0,0.0,17,0.00,,,0.00,VWS V14.01,2013-01-05 22:56:00,
2013-01-05 17:57:00,37.2,-3.6,30.09,SW,225,0.0,0.0,17,0.00,,,0.00,VWS V14.01,2013-01-05 22:57:00,
2013-01-05 18:00:00,37.0,-3.7,30.09,SW,225,0.0,0.0,17,0.00,,,0.00,VWS V14.01,2013-01-05 23:00:00,
2013-01-05 18:01:00,37.0,-3.7,30.09,SW,225,0.0,0.0,17,0.00,,,0.00,VWS V14.01,2013-01-05 23:01:00,
2013-01-05 18:02:00,37.0,-3.7,30.09,SW,225,0.0,0.0,17,0.00,,,0.00,VWS V14.01,2013-01-05 23:02:00,
2013-01-05 18:05:00,36.9,-3.9,30.09,SW,225,0.0,0.0,17,0.00,,,0.00,VWS V14.01,2013-01-05 23:05:00,
2013-01-05 18:06:00,36.9,-3.9,30.09,SW,225,0.0,0.0,17,0.00,,,0.00,VWS V14.01,2013-01-05 23:06:00,
2013-01-05 18:07:00,36.9,-3.9,30.09,SW,225,0.0,0.0,17,0.00,,,0.00,VWS V14.01,2013-01-05 23:07:00,
2013-01-05 18:10:00,36.7,-4.0,30.09,SW,225,0.0,0.0,17,0.00,,,0.00,VWS V14.01,2013-01-05 23:10:00,
2013-01-05 18:11:00,36.7,-4.0,30.09,SW,225,0.0,0.0,17,0.00,,,0.00,VWS V14.01,2013-01-05 23:11:00,
2013-01-05 18:12:00,36.7,-4.0,30.09,SW,225,0.0,0.0,17,0.00,,,0.00,VWS V14.01,2013-01-05 23:12:00,
2013-01-05 18:15:00,36.3,-4.3,30.09,SW,225,0.0,0.0,17,0.00,,,0.00,VWS V14.01,2013-01-05 23:15:00,
2013-01-05 18:17:00,36.3,-4.3,30.09,SW,225,0.0,0.0,17,0.00,,,0.00,VWS V14.01,2013-01-05 23:17:00,
2013-01-05 18:20:00,36.1,-4.5,30.09,SW,225,0.0,0.0,17,0.00,,,0.00,VWS V14.01,2013-01-05 23:20:00,
2013-01-05 18:22:00,36.1,-4.5,30.09,East,90,0.0,0.0,17,0.00,,,0.00,VWS V14.01,2013-01-05 23:22:00,
2013-01-05 18:23:00,36.1,-4.5,30.09,East,90,0.0,0.0,17,0.00,,,0.00,VWS V14.01,2013-01-05 23:23:00,
2013-01-05 18:26:00,36.0,-4.6,30.09,East,90,0.0,0.0,17,0.00,,,0.00,VWS V14.01,2013-01-05 23:26:00,
2013-01-05 18:27:00,35.8,-4.8,30.09,East,90,0.0,0.0,17,0.00,,,0.00,VWS V14.01,2013-01-05 23:27:00,
2013-01-05 18:28:00,35.8,-4.8,30.09,East,90,0.0,0.0,17,0.00,,,0.00,VWS V14.01,2013-01-05 23:28:00,
2013-01-05 18:31:00,35.6,-4.9,30.09,East,90,0.0,0.0,17,0.00,,,0.00,VWS V14.01,2013-01-05 23:31:00,
2013-01-05 18:32:00,35.6,-4.9,30.09,East,90,0.0,0.0,17,0.00,,,0.00,VWS V14.01,2013-01-05 23:32:00,
2013-01-05 18:33:00,35.6,-4.9,30.09,East,90,0.0,0.0,17,0.00,,,0.00,VWS V14.01,2013-01-05 23:33:00,
2013-01-05 18:36:00,35.4,-5.1,30.09,East,90,0.0,0.0,17,0.00,,,0.00,VWS V14.01,2013-01-05 23:36:00,
2013-01-05 18:37:00,35.4,-5.1,30.09,East,90,0.0,0.0,17,0.00,,,0.00,VWS V14.01,2013-01-05 23:37:00,
2013-01-05 18:38:00,35.4,-5.1,30.09,East,90,0.0,0.0,17,0.00,,,0.00,VWS V14.01,2013-01-05 23:38:00,
2013-01-05 18:41:00,35.4,-5.1,30.09,East,90,0.0,0.0,17,0.00,,,0.00,VWS V14.01,2013-01-05 23:41:00,
2013-01-05 18:42:00,35.2,-5.2,30.09,East,90,0.0,0.0,17,0.00,,,0.00,VWS V14.01,2013-01-05 23:42:00,
2013-01-05 18:43:00,35.2,-5.2,30.09,East,90,0.0,0.0,17,0.00,,,0.00,VWS V14.01,2013-01-05 23:43:00,
2013-01-05 18:46:00,35.1,-5.3,30.09,East,90,0.0,0.0,17,0.00,,,0.00,VWS V14.01,2013-01-05 23:46:00,
2013-01-05 18:47:00,35.1,-5.3,30.09,East,90,0.0,0.0,17,0.00,,,0.00,VWS V14.01,2013-01-05 23:47:00,
2013-01-05 18:48:00,35.1,-5.3,30.09,East,90,0.0,0.0,17,0.00,,,0.00,VWS V14.01,2013-01-05 23:48:00,
2013-01-05 18:51:00,35.1,-5.3,30.09,East,90,0.0,0.0,17,0.00,,,0.00,VWS V14.01,2013-01-05 23:51:00,
2013-01-05 18:53:00,34.9,-5.5,30.09,East,90,0.0,0.0,17,0.00,,,0.00,VWS V14.01,2013-01-05 23:53:00,
2013-01-05 18:56:00,34.9,-5.5,30.09,East,90,0.0,0.0,17,0.00,,,0.00,VWS V14.01,2013-01-05 23:56:00,
2013-01-05 18:58:00,34.9,-5.5,30.09,East,90,0.0,0.0,17,0.00,,,0.00,VWS V14.01,2013-01-05 23:58:00,
2013-01-05 19:01:00,34.7,-5.6,30.09,East,90,0.0,0.0,17,0.00,,,0.00,VWS V14.01,2013-01-06 00:01:00,
2013-01-05 19:03:00,34.7,-5.6,30.09,East,90,0.0,0.0,17,0.00,,,0.00,VWS V14.01,2013-01-06 00:03:00,
2013-01-05 19:06:00,34.7,-5.6,30.09,East,90,0.0,0.0,17,0.00,,,0.00,VWS V14.01,2013-01-06 00:06:00,
2013-01-05 19:08:00,34.5,-5.8,30.09,East,90,0.0,0.0,17,0.00,,,0.00,VWS V14.01,2013-01-06 00:08:00,
2013-01-05 19:11:00,34.5,-5.8,30.12,East,90,0.0,0.0,17,0.00,,,0.00,VWS V14.01,2013-01-06 00:11:00,
2013-01-05 19:13:00,34.5,-5.8,30.12,East,90,0.0,0.0,17,0.00,,,0.00,VWS V14.01,2013-01-06 00:13:00,
2013-01-05 19:16:00,34.5,-5.8,30.12,East,90,0.0,0.0,17,0.00,,,0.00,VWS V14.01,2013-01-06 00:16:00,
2013-01-05 19:18:00,34.5,-5.8,30.12,East,90,0.0,0.0,17,0.00,,,0.00,VWS V14.01,2013-01-06 00:18:00,
2013-01-05 19:21:00,34.3,-5.9,30.12,East,90,0.0,0.0,17,0.00,,,0.00,VWS V14.01,2013-01-06 00:21:00,
2013-01-05 19:23:00,34.3,-5.9,30.12,East,90,0.0,0.0,17,0.00,,,0.00,VWS V14.01,2013-01-06 00:23:00,
2013-01-05 19:26:00,34.3,-5.9,30.09,East,90,0.0,0.0,17,0.00,,,0.00,VWS V14.01,2013-01-06 00:26:00,
2013-01-05 19:28:00,34.2,-6.1,30.09,East,90,0.0,0.0,17,0.00,,,0.00,VWS V14.01,2013-01-06 00:28:00,
2013-01-05 19:29:00,34.2,-6.1,30.09,East,90,0.0,0.0,17,0.00,,,0.00,VWS V14.01,2013-01-06 00:29:00,
2013-01-05 19:31:00,34.2,-6.1,30.09,East,90,0.0,0.0,17,0.00,,,0.00,VWS V14.01,2013-01-06 00:31:00,
2013-01-05 19:33:00,34.2,-6.1,30.09,East,90,0.0,0.0,17,0.00,,,0.00,VWS V14.01,2013-01-06 00:33:00,
2013-01-05 19:34:00,34.2,-6.1,30.09,East,90,0.0,0.0,17,0.00,,,0.00,VWS V14.01,2013-01-06 00:34:00,
2013-01-05 19:36:00,34.0,-6.2,30.09,East,90,0.0,0.0,17,0.00,,,0.00,VWS V14.01,2013-01-06 00:36:00,
2013-01-05 19:39:00,34.0,-6.2,30.12,East,90,0.0,0.0,17,0.00,,,0.00,VWS V14.01,2013-01-06 00:39:00,
2013-01-05 19:41:00,34.0,-6.2,30.12,East,90,0.0,0.0,17,0.00,,,0.00,VWS V14.01,2013-01-06 00:41:00,
2013-01-05 19:44:00,34.0,-6.2,30.12,East,90,0.0,0.0,17,0.00,,,0.00,VWS V14.01,2013-01-06 00:44:00,
2013-01-05 19:46:00,34.0,-6.2,30.12,East,90,0.0,0.0,17,0.00,,,0.00,VWS V14.01,2013-01-06 00:46:00,
2013-01-05 19:49:00,34.0,-6.2,30.12,East,90,0.0,0.0,17,0.00,,,0.00,VWS V14.01,2013-01-06 00:49:00,
2013-01-05 19:51:00,34.0,-6.2,30.12,East,90,0.0,0.0,17,0.00,,,0.00,VWS V14.01,2013-01-06 00:51:00,
2013-01-05 19:54:00,34.0,-6.2,30.09,East,90,0.0,0.0,17,0.00,,,0.00,VWS V14.01,2013-01-06 00:54:00,
2013-01-05 19:57:00,34.0,-6.2,30.09,East,90,0.0,0.0,17,0.00,,,0.00,VWS V14.01,2013-01-06 00:57:00,
2013-01-05 19:59:00,33.8,-6.4,30.09,East,90,0.0,0.0,17,0.00,,,0.00,VWS V14.01,2013-01-06 00:59:00,
2013-01-05 20:02:00,33.8,-6.4,30.09,East,90,0.0,0.0,17,0.00,,,0.00,VWS V14.01,2013-01-06 01:02:00,
2013-01-05 20:04:00,33.8,-6.4,30.09,East,90,0.0,0.0,17,0.00,,,0.00,VWS V14.01,2013-01-06 01:04:00,
2013-01-05 20:07:00,33.6,-5.3,30.09,East,90,0.0,0.0,18,0.00,,,0.00,VWS V14.01,2013-01-06 01:07:00,
2013-01-05 20:09:00,33.6,-5.3,30.09,East,90,0.0,0.0,18,0.00,,,0.00,VWS V14.01,2013-01-06 01:09:00,
2013-01-05 20:12:00,33.6,-5.3,30.09,East,90,0.0,0.0,18,0.00,,,0.00,VWS V14.01,2013-01-06 01:12:00,
2013-01-05 20:14:00,33.6,-5.3,30.09,East,90,0.0,0.0,18,0.00,,,0.00,VWS V14.01,2013-01-06 01:14:00,
2013-01-05 20:17:00,33.4,-5.5,30.09,East,90,0.0,0.0,18,0.00,,,0.00,VWS V14.01,2013-01-06 01:17:00,
2013-01-05 20:19:00,33.4,-5.5,30.09,East,90,0.0,0.0,18,0.00,,,0.00,VWS V14.01,2013-01-06 01:19:00,
2013-01-05 20:20:00,33.4,-5.5,30.09,East,90,0.0,0.0,18,0.00,,,0.00,VWS V14.01,2013-01-06 01:20:00,
2013-01-05 20:22:00,33.4,-5.5,30.09,East,90,0.0,0.0,18,0.00,,,0.00,VWS V14.01,2013-01-06 01:22:00,
2013-01-05 20:24:00,33.3,-5.7,30.06,East,90,0.0,0.0,18,0.00,,,0.00,VWS V14.01,2013-01-06 01:24:00,
2013-01-05 20:25:00,33.3,-5.7,30.06,East,90,0.0,0.0,18,0.00,,,0.00,VWS V14.01,2013-01-06 01:25:00,
2013-01-05 20:27:00,33.3,-5.7,30.06,East,90,0.0,0.0,18,0.00,,,0.00,VWS V14.01,2013-01-06 01:27:00,
2013-01-05 20:29:00,33.3,-5.7,30.06,East,90,0.0,0.0,18,0.00,,,0.00,VWS V14.01,2013-01-06 01:29:00,
2013-01-05 20:30:00,33.3,-5.7,30.06,East,90,0.0,0.0,18,0.00,,,0.00,VWS V14.01,2013-01-06 01:30:00,
2013-01-05 20:32:00,33.3,-5.7,30.06,East,90,0.0,0.0,18,0.00,,,0.00,VWS V14.01,2013-01-06 01:32:00,
2013-01-05 20:34:00,33.3,-5.7,30.06,East,90,0.0,0.0,18,0.00,,,0.00,VWS V14.01,2013-01-06 01:34:00,
2013-01-05 20:35:00,33.3,-5.7,30.06,East,90,0.0,0.0,18,0.00,,,0.00,VWS V14.01,2013-01-06 01:35:00,
2013-01-05 20:37:00,33.3,-5.7,30.06,East,90,0.0,0.0,18,0.00,,,0.00,VWS V14.01,2013-01-06 01:37:00,
2013-01-05 20:39:00,33.3,-5.7,30.06,East,90,0.0,0.0,18,0.00,,,0.00,VWS V14.01,2013-01-06 01:39:00,
2013-01-05 20:40:00,33.3,-5.7,30.06,East,90,0.0,0.0,18,0.00,,,0.00,VWS V14.01,2013-01-06 01:40:00,
2013-01-05 20:42:00,33.3,-5.7,30.06,East,90,0.0,0.0,18,0.00,,,0.00,VWS V14.01,2013-01-06 01:42:00,
2013-01-05 20:45:00,33.3,-5.7,30.06,East,90,0.0,0.0,18,0.00,,,0.00,VWS V14.01,2013-01-06 01:45:00,
2013-01-05 20:47:00,33.3,-5.7,30.06,East,90,0.0,0.0,18,0.00,,,0.00,VWS V14.01,2013-01-06 01:47:00,
2013-01-05 20:50:00,33.1,-5.8,30.06,East,90,0.0,0.0,18,0.00,,,0.00,VWS V14.01,2013-01-06 01:50:00,
2013-01-05 20:51:00,33.1,-5.8,30.06,East,90,0.0,0.0,18,0.00,,,0.00,VWS V14.01,2013-01-06 01:51:00,
2013-01-05 20:52:00,33.1,-5.8,30.06,East,90,0.0,0.0,18,0.00,,,0.00,VWS V14.01,2013-01-06 01:52:00,
2013-01-05 20:55:00,33.1,-5.8,30.09,East,90,0.0,0.0,18,0.00,,,0.00,VWS V14.01,2013-01-06 01:55:00,
2013-01-05 20:56:00,33.1,-5.8,30.09,East,90,0.0,0.0,18,0.00,,,0.00,VWS V14.01,2013-01-06 01:56:00,
2013-01-05 20:57:00,33.1,-5.8,30.09,East,90,0.0,0.0,18,0.00,,,0.00,VWS V14.01,2013-01-06 01:57:00,
2013-01-05 21:00:00,33.1,-5.8,30.09,East,90,0.0,0.0,18,0.00,,,0.00,VWS V14.01,2013-01-06 02:00:00,
2013-01-05 21:01:00,33.1,-5.8,30.09,East,90,0.0,0.0,18,0.00,,,0.00,VWS V14.01,2013-01-06 02:01:00,
2013-01-05 21:02:00,33.1,-5.8,30.09,East,90,0.0,0.0,18,0.00,,,0.00,VWS V14.01,2013-01-06 02:02:00,
2013-01-05 21:05:00,33.1,-5.8,30.09,East,90,0.0,0.0,18,0.00,,,0.00,VWS V14.01,2013-01-06 02:05:00,
2013-01-05 21:06:00,33.1,-5.8,30.09,East,90,0.0,0.0,18,0.00,,,0.00,VWS V14.01,2013-01-06 02:06:00,
2013-01-05 21:08:00,33.1,-5.8,30.09,East,90,0.0,0.0,18,0.00,,,0.00,VWS V14.01,2013-01-06 02:08:00,
2013-01-05 21:10:00,33.1,-5.8,30.09,East,90,0.0,0.0,18,0.00,,,0.00,VWS V14.01,2013-01-06 02:10:00,
2013-01-05 21:11:00,32.9,-5.9,30.09,East,90,0.0,0.0,18,0.00,,,0.00,VWS V14.01,2013-01-06 02:11:00,
2013-01-05 21:13:00,32.9,-5.9,30.09,East,90,0.0,0.0,18,0.00,,,0.00,VWS V14.01,2013-01-06 02:13:00,
2013-01-05 21:15:00,32.9,-5.9,30.09,East,90,0.0,0.0,18,0.00,,,0.00,VWS V14.01,2013-01-06 02:15:00,
2013-01-05 21:16:00,32.9,-5.9,30.09,East,90,0.0,0.0,18,0.00,,,0.00,VWS V14.01,2013-01-06 02:16:00,
2013-01-05 21:18:00,32.9,-5.9,30.09,East,90,0.0,0.0,18,0.00,,,0.00,VWS V14.01,2013-01-06 02:18:00,
2013-01-05 21:20:00,32.9,-5.9,30.09,East,90,0.0,0.0,18,0.00,,,0.00,VWS V14.01,2013-01-06 02:20:00,
2013-01-05 21:21:00,32.9,-5.9,30.09,East,90,0.0,0.0,18,0.00,,,0.00,VWS V14.01,2013-01-06 02:21:00,
2013-01-05 21:23:00,32.9,-5.9,30.09,East,90,0.0,0.0,18,0.00,,,0.00,VWS V14.01,2013-01-06 02:23:00,
2013-01-05 21:25:00,32.9,-5.9,30.09,East,90,0.0,0.0,18,0.00,,,0.00,VWS V14.01,2013-01-06 02:25:00,
2013-01-05 21:26:00,32.9,-5.9,30.09,East,90,0.0,0.0,18,0.00,,,0.00,VWS V14.01,2013-01-06 02:26:00,
2013-01-05 21:28:00,32.9,-5.9,30.09,East,90,0.0,0.0,18,0.00,,,0.00,VWS V14.01,2013-01-06 02:28:00,
2013-01-05 21:30:00,32.9,-5.9,30.09,East,90,0.0,0.0,18,0.00,,,0.00,VWS V14.01,2013-01-06 02:30:00,
2013-01-05 21:31:00,32.9,-5.9,30.09,East,90,0.0,0.0,18,0.00,,,0.00,VWS V14.01,2013-01-06 02:31:00,
2013-01-05 21:33:00,33.1,-5.8,30.09,East,90,0.0,0.0,18,0.00,,,0.00,VWS V14.01,2013-01-06 02:33:00,
2013-01-05 21:35:00,33.1,-5.8,30.09,East,90,0.0,0.0,18,0.00,,,0.00,VWS V14.01,2013-01-06 02:35:00,
2013-01-05 21:37:00,33.1,-5.8,30.09,East,90,0.0,0.0,18,0.00,,,0.00,VWS V14.01,2013-01-06 02:37:00,
2013-01-05 21:39:00,33.1,-5.8,30.09,East,90,0.0,0.0,18,0.00,,,0.00,VWS V14.01,2013-01-06 02:39:00,
2013-01-05 21:40:00,33.1,-5.8,30.09,East,90,0.0,0.0,18,0.00,,,0.00,VWS V14.01,2013-01-06 02:40:00,
2013-01-05 21:41:00,33.1,-5.8,30.09,East,90,0.0,0.0,18,0.00,,,0.00,VWS V14.01,2013-01-06 02:41:00,
2013-01-05 21:42:00,33.1,-5.8,30.09,East,90,0.0,0.0,18,0.00,,,0.00,VWS V14.01,2013-01-06 02:42:00,
2013-01-05 21:44:00,33.1,-5.8,30.09,East,90,0.0,0.0,18,0.00,,,0.00,VWS V14.01,2013-01-06 02:44:00,
2013-01-05 21:45:00,33.1,-5.8,30.09,East,90,0.0,0.0,18,0.00,,,0.00,VWS V14.01,2013-01-06 02:45:00,
2013-01-05 21:46:00,33.1,-5.8,30.09,East,90,0.0,0.0,18,0.00,,,0.00,VWS V14.01,2013-01-06 02:46:00,
2013-01-05 21:47:00,33.1,-5.8,30.09,East,90,0.0,0.0,18,0.00,,,0.00,VWS V14.01,2013-01-06 02:47:00,
2013-01-05 21:49:00,33.3,-5.7,30.09,East,90,0.0,0.0,18,0.00,,,0.00,VWS V14.01,2013-01-06 02:49:00,
2013-01-05 21:50:00,33.3,-5.7,30.09,WSW,248,0.0,0.0,18,0.00,,,0.00,VWS V14.01,2013-01-06 02:50:00,
2013-01-05 21:51:00,33.3,-5.7,30.09,WSW,248,0.0,0.0,18,0.00,,,0.00,VWS V14.01,2013-01-06 02:51:00,
2013-01-05 21:52:00,33.3,-5.7,30.09,WSW,248,0.0,0.0,18,0.00,,,0.00,VWS V14.01,2013-01-06 02:52:00,
2013-01-05 21:54:00,33.3,-5.7,30.06,WSW,248,0.0,0.0,18,0.00,,,0.00,VWS V14.01,2013-01-06 02:54:00,
2013-01-05 21:55:00,33.3,-5.7,30.06,WSW,248,0.0,0.0,18,0.00,,,0.00,VWS V14.01,2013-01-06 02:55:00,
2013-01-05 21:56:00,33.3,-5.7,30.06,WSW,248,0.0,0.0,18,0.00,,,0.00,VWS V14.01,2013-01-06 02:56:00,
2013-01-05 21:57:00,33.3,-5.7,30.06,WSW,248,0.0,0.0,18,0.00,,,0.00,VWS V14.01,2013-01-06 02:57:00,
2013-01-05 21:59:00,33.4,-5.5,30.06,WSW,248,0.0,0.0,18,0.00,,,0.00,VWS V14.01,2013-01-06 02:59:00,
2013-01-05 22:00:00,33.4,-5.5,30.06,WSW,248,0.0,0.0,18,0.00,,,0.00,VWS V14.01,2013-01-06 03:00:00,
2013-01-05 22:01:00,33.4,-5.5,30.06,WSW,248,0.0,0.0,18,0.00,,,0.00,VWS V14.01,2013-01-06 03:01:00,
2013-01-05 22:02:00,33.6,-5.3,30.06,WSW,248,0.0,0.0,18,0.00,,,0.00,VWS V14.01,2013-01-06 03:02:00,
2013-01-05 22:04:00,33.6,-5.3,30.06,WSW,248,0.0,0.0,18,0.00,,,0.00,VWS V14.01,2013-01-06 03:04:00,
2013-01-05 22:05:00,33.6,-5.3,30.06,WSW,248,0.0,0.0,18,0.00,,,0.00,VWS V14.01,2013-01-06 03:05:00,
2013-01-05 22:06:00,33.6,-5.3,30.06,WSW,248,0.0,0.0,18,0.00,,,0.00,VWS V14.01,2013-01-06 03:06:00,
2013-01-05 22:07:00,33.6,-5.3,30.06,WSW,248,0.0,0.0,18,0.00,,,0.00,VWS V14.01,2013-01-06 03:07:00,
2013-01-05 22:09:00,33.8,-6.4,30.06,WSW,248,0.0,0.0,17,0.00,,,0.00,VWS V14.01,2013-01-06 03:09:00,
2013-01-05 22:10:00,33.8,-6.4,30.06,WSW,248,0.0,0.0,17,0.00,,,0.00,VWS V14.01,2013-01-06 03:10:00,
2013-01-05 22:12:00,33.8,-6.4,30.06,WSW,248,0.0,0.0,17,0.00,,,0.00,VWS V14.01,2013-01-06 03:12:00,
2013-01-05 22:14:00,34.0,-6.2,30.06,WSW,248,0.0,0.0,17,0.00,,,0.00,VWS V14.01,2013-01-06 03:14:00,
2013-01-05 22:16:00,34.0,-6.2,30.06,WSW,248,0.0,0.0,17,0.00,,,0.00,VWS V14.01,2013-01-06 03:16:00,
2013-01-05 22:17:00,34.0,-6.2,30.06,WSW,248,0.0,0.0,17,0.00,,,0.00,VWS V14.01,2013-01-06 03:17:00,
2013-01-05 22:20:00,34.2,-6.1,30.06,WSW,248,0.0,0.0,17,0.00,,,0.00,VWS V14.01,2013-01-06 03:20:00,
2013-01-05 22:21:00,34.2,-6.1,30.06,WSW,248,0.0,0.0,17,0.00,,,0.00,VWS V14.01,2013-01-06 03:21:00,
2013-01-05 22:22:00,34.2,-6.1,30.06,WSW,248,0.0,0.0,17,0.00,,,0.00,VWS V14.01,2013-01-06 03:22:00,
2013-01-05 22:25:00,34.3,-5.9,30.06,WSW,248,0.0,0.0,17,0.00,,,0.00,VWS V14.01,2013-01-06 03:25:00,
2013-01-05 22:26:00,34.3,-5.9,30.06,WSW,248,0.0,0.0,17,0.00,,,0.00,VWS V14.01,2013-01-06 03:26:00,
2013-01-05 22:27:00,34.3,-5.9,30.06,WSW,248,0.0,0.0,17,0.00,,,0.00,VWS V14.01,2013-01-06 03:27:00,
2013-01-05 22:30:00,34.3,-5.9,30.06,WSW,248,0.0,0.0,17,0.00,,,0.00,VWS V14.01,2013-01-06 03:30:00,
2013-01-05 22:31:00,34.3,-5.9,30.06,WSW,248,0.0,0.0,17,0.00,,,0.00,VWS V14.01,2013-01-06 03:31:00,
2013-01-05 22:32:00,34.3,-5.9,30.06,WSW,248,0.0,0.0,17,0.00,,,0.00,VWS V14.01,2013-01-06 03:32:00,
2013-01-05 22:35:00,34.5,-5.8,30.06,WSW,248,0.0,0.0,17,0.00,,,0.00,VWS V14.01,2013-01-06 03:35:00,
2013-01-05 22:36:00,34.5,-5.8,30.06,WSW,248,0.0,0.0,17,0.00,,,0.00,VWS V14.01,2013-01-06 03:36:00,
2013-01-05 22:37:00,34.5,-5.8,30.06,WSW,248,0.0,0.0,17,0.00,,,0.00,VWS V14.01,2013-01-06 03:37:00,
2013-01-05 22:40:00,34.5,-5.8,30.06,WSW,248,0.0,0.0,17,0.00,,,0.00,VWS V14.01,2013-01-06 03:40:00,
2013-01-05 22:42:00,34.5,-5.8,30.06,WSW,248,0.0,0.0,17,0.00,,,0.00,VWS V14.01,2013-01-06 03:42:00,
2013-01-05 22:45:00,34.5,-5.8,30.06,WSW,248,0.0,0.0,17,0.00,,,0.00,VWS V14.01,2013-01-06 03:45:00,
2013-01-05 22:47:00,34.5,-5.8,30.06,WSW,248,0.0,0.0,17,0.00,,,0.00,VWS V14.01,2013-01-06 03:47:00,
2013-01-05 22:50:00,34.5,-5.8,30.06,WSW,248,0.0,0.0,17,0.00,,,0.00,VWS V14.01,2013-01-06 03:50:00,
2013-01-05 22:52:00,34.5,-5.8,30.06,WSW,248,0.0,0.0,17,0.00,,,0.00,VWS V14.01,2013-01-06 03:52:00,
2013-01-05 22:55:00,34.5,-5.8,30.06,WSW,248,0.0,0.0,17,0.00,,,0.00,VWS V14.01,2013-01-06 03:55:00,
2013-01-05 22:57:00,34.7,-5.6,30.06,WSW,248,0.0,0.0,17,0.00,,,0.00,VWS V14.01,2013-01-06 03:57:00,
2013-01-05 22:58:00,34.7,-5.6,30.06,WSW,248,0.0,0.0,17,0.00,,,0.00,VWS V14.01,2013-01-06 03:58:00,
2013-01-05 23:00:00,34.7,-5.6,30.06,WSW,248,0.0,0.0,17,0.00,,,0.00,VWS V14.01,2013-01-06 04:00:00,
2013-01-05 23:02:00,34.7,-5.6,30.06,WSW,248,0.0,0.0,17,0.00,,,0.00,VWS V14.01,2013-01-06 04:02:00,
2013-01-05 23:03:00,34.7,-5.6,30.06,WSW,248,0.0,0.0,17,0.00,,,0.00,VWS V14.01,2013-01-06 04:03:00,
2013-01-05 23:05:00,34.7,-5.6,30.06,WSW,248,0.0,0.0,17,0.00,,,0.00,VWS V14.01,2013-01-06 04:05:00,
2013-01-05 23:07:00,34.5,-5.8,30.06,WSW,248,0.0,0.0,17,0.00,,,0.00,VWS V14.01,2013-01-06 04:07:00,
2013-01-05 23:08:00,34.5,-5.8,30.06,WSW,248,0.0,0.0,17,0.00,,,0.00,VWS V14.01,2013-01-06 04:08:00,
2013-01-05 23:10:00,34.5,-5.8,30.06,WSW,248,0.0,0.0,17,0.00,,,0.00,VWS V14.01,2013-01-06 04:10:00,
2013-01-05 23:12:00,34.5,-5.8,30.06,WSW,248,0.0,0.0,17,0.00,,,0.00,VWS V14.01,2013-01-06 04:12:00,
2013-01-05 23:13:00,34.5,-5.8,30.06,WSW,248,0.0,0.0,17,0.00,,,0.00,VWS V14.01,2013-01-06 04:13:00,
2013-01-05 23:16:00,34.5,-5.8,30.06,WSW,248,0.0,0.0,17,0.00,,,0.00,VWS V14.01,2013-01-06 04:16:00,
2013-01-05 23:17:00,34.5,-5.8,30.06,WSW,248,0.0,0.0,17,0.00,,,0.00,VWS V14.01,2013-01-06 04:17:00,
2013-01-05 23:18:00,34.5,-5.8,30.06,WSW,248,0.0,0.0,17,0.00,,,0.00,VWS V14.01,2013-01-06 04:18:00,
2013-01-05 23:21:00,34.5,-5.8,30.06,WSW,248,0.0,0.0,17,0.00,,,0.00,VWS V14.01,2013-01-06 04:21:00,
2013-01-05 23:22:00,34.5,-5.8,30.06,WSW,248,0.0,0.0,17,0.00,,,0.00,VWS V14.01,2013-01-06 04:22:00,
2013-01-05 23:23:00,34.5,-5.8,30.06,WSW,248,0.0,0.0,17,0.00,,,0.00,VWS V14.01,2013-01-06 04:23:00,
2013-01-05 23:26:00,34.5,-5.8,30.03,WSW,248,0.0,0.0,17,0.00,,,0.00,VWS V14.01,2013-01-06 04:26:00,
2013-01-05 23:27:00,34.5,-5.8,30.03,WSW,248,0.0,0.0,17,0.00,,,0.00,VWS V14.01,2013-01-06 04:27:00,
2013-01-05 23:28:00,34.5,-5.8,30.03,WSW,248,0.0,0.0,17,0.00,,,0.00,VWS V14.01,2013-01-06 04:28:00,
2013-01-05 23:31:00,34.5,-5.8,30.03,WSW,248,0.0,0.0,17,0.00,,,0.00,VWS V14.01,2013-01-06 04:31:00,
2013-01-05 23:32:00,34.5,-5.8,30.03,WSW,248,0.0,0.0,17,0.00,,,0.00,VWS V14.01,2013-01-06 04:32:00,
2013-01-05 23:33:00,34.7,-5.6,30.03,WSW,248,0.0,0.0,17,0.00,,,0.00,VWS V14.01,2013-01-06 04:33:00,
2013-01-05 23:36:00,34.7,-5.6,30.03,WSW,248,0.0,0.0,17,0.00,,,0.00,VWS V14.01,2013-01-06 04:36:00,
2013-01-05 23:37:00,34.7,-5.6,30.03,WSW,248,0.0,0.0,17,0.00,,,0.00,VWS V14.01,2013-01-06 04:37:00,
2013-01-05 23:38:00,34.7,-5.6,30.03,WSW,248,0.0,0.0,17,0.00,,,0.00,VWS V14.01,2013-01-06 04:38:00,
2013-01-05 23:41:00,34.7,-5.6,30.03,WSW,248,0.0,0.0,17,0.00,,,0.00,VWS V14.01,2013-01-06 04:41:00,
2013-01-05 23:43:00,34.7,-5.6,30.03,WSW,248,0.0,0.0,17,0.00,,,0.00,VWS V14.01,2013-01-06 04:43:00,
2013-01-05 23:46:00,34.7,-5.6,30.03,WSW,248,0.0,0.0,17,0.00,,,0.00,VWS V14.01,2013-01-06 04:46:00,
2013-01-05 23:48:00,34.7,-2.3,30.03,WSW,248,0.0,0.0,20,0.00,,,0.00,VWS V14.01,2013-01-06 04:48:00,
2013-01-05 23:51:00,34.7,-5.6,30.03,WSW,248,0.0,0.0,17,0.00,,,0.00,VWS V14.01,2013-01-06 04:51:00,
2013-01-05 23:53:00,34.9,-5.5,30.03,WSW,248,0.0,0.0,17,0.00,,,0.00,VWS V14.01,2013-01-06 04:53:00,
2013-01-05 23:56:00,34.9,-5.5,30.03,WSW,248,0.0,0.0,17,0.00,,,0.00,VWS V14.01,2013-01-06 04:56:00,
2013-01-05 23:58:00,34.9,-2.1,30.03,WSW,248,0.0,0.0,20,0.00,,,0.00,VWS V14.01,2013-01-06 04:58:00,
2013-01-05 23:59:00,34.9,-5.5,30.03,WSW,248,0.0,0.0,17,0.00,,,0.00,VWS V14.01,2013-01-06 04:59:00,